EA1FJG Weather Reports


Display with metric or nautical units.
time (UTC)temp
F
wind
direction
speed
MPH
gust
MPH
rain 1hr
in
rain 24hr
in
rain mn
in
humidity
%
barometer
mb
20260507005903 47 0 0.0 0.0 0.00 0.07 0.00 98 1013.2
20260507005803 47 0 0.0 0.0 0.00 0.07 0.00 98 1013.5
20260507005703 47 0 0.0 0.0 0.00 0.07 0.00 98 1013.4
20260507005603 47 0 0.0 0.0 0.00 0.07 0.00 98 1013.6
20260507005503 48 0 0.0 0.0 0.00 0.07 0.00 98 1013.6
20260507005403 48 0 0.0 0.0 0.00 0.07 0.00 98 1013.5
20260507005305 48 0 0.0 0.0 0.00 0.07 0.00 98 1013.6
20260507005203 48 0 0.0 0.0 0.00 0.07 0.00 98 1013.4
20260507005103 48 0 0.0 0.0 0.00 0.07 0.00 98 1013.4
20260507005003 48 0 0.0 0.0 0.00 0.07 0.00 98 1013.5
20260507004903 48 0 0.0 0.0 0.00 0.07 0.00 98 1013.8
20260507004803 48 0 0.0 0.0 0.00 0.07 0.00 98 1013.6
20260507004703 47 0 0.0 0.0 0.00 0.07 0.00 98 1013.5
20260507004603 47 0 0.0 0.0 0.00 0.07 0.00 98 1013.5
20260507004503 47 0 0.0 0.0 0.00 0.07 0.00 98 1013.7
20260507004403 48 0 0.0 0.0 0.00 0.07 0.00 98 1013.6
20260507004302 48 0 0.0 0.0 0.00 0.07 0.00 98 1013.6
20260507004202 48 0 0.0 0.0 0.00 0.07 0.00 98 1013.6
20260507004123 48 0 0.0 0.0 0.00 0.07 0.00 98 1013.6
20260507004003 48 0 0.0 0.0 0.00 0.07 0.00 98 1013.4
20260507003902 48 0 0.0 0.0 0.00 0.07 0.00 97 1013.6
20260507003803 48 0 0.0 0.0 0.00 0.07 0.00 97 1013.6
20260507003703 48 0 0.0 0.0 0.00 0.07 0.00 97 1013.6
20260507003603 48 0 0.0 0.0 0.00 0.07 0.00 97 1013.5
20260507003502 48 0 0.0 0.0 0.00 0.07 0.00 97 1013.7
20260507003402 48 0 0.0 0.0 0.00 0.07 0.00 97 1013.7
20260507003302 48 0 0.0 0.0 0.00 0.07 0.00 97 1013.6
20260507003203 48 0 0.0 0.0 0.00 0.07 0.00 97 1013.6
20260507003124 48 0 0.0 0.0 0.00 0.07 0.00 97 1013.5
20260507003003 48 0 0.0 0.0 0.00 0.07 0.00 97 1013.6
20260507002923 48 44 0.0 1.0 0.00 0.07 0.00 97 1013.7
20260507002803 48 44 0.0 1.0 0.00 0.07 0.00 97 1013.7
20260507002724 48 44 0.0 1.0 0.00 0.07 0.00 97 1013.5
20260507002602 48 44 0.0 1.0 0.00 0.07 0.00 97 1013.7
20260507002503 49 44 0.0 1.0 0.00 0.07 0.00 97 1013.6
20260507002402 49 45 0.0 1.0 0.00 0.07 0.00 97 1013.5
20260507002306 49 40 0.0 1.0 0.00 0.07 0.00 97 1013.8
20260507002223 49 40 0.0 1.0 0.00 0.07 0.00 97 1013.8
20260507002102 49 41 0.0 1.0 0.00 0.07 0.00 97 1013.6
20260507002002 49 51 1.0 2.0 0.00 0.07 0.00 97 1013.7
20260507001903 49 51 1.0 2.0 0.00 0.07 0.00 97 1013.7
20260507001803 49 51 1.0 2.0 0.00 0.07 0.00 97 1013.7
20260507001703 49 52 1.0 2.0 0.00 0.07 0.00 97 1013.8
20260507001602 49 51 1.0 2.0 0.00 0.07 0.00 97 1013.8
20260507001503 49 51 1.0 2.0 0.00 0.07 0.00 97 1013.8
20260507001403 49 50 1.0 2.0 0.00 0.07 0.00 97 1013.7
20260507001302 49 51 1.0 2.0 0.00 0.07 0.00 97 1013.8
20260507001203 49 51 1.0 2.0 0.00 0.07 0.00 97 1013.8
20260507001102 49 50 1.0 2.0 0.00 0.07 0.00 97 1013.8
20260507001024 49 50 1.0 2.0 0.00 0.07 0.00 97 1013.9
20260507000903 49 44 1.0 2.0 0.00 0.07 0.00 97 1013.9
20260507000802 49 43 1.0 2.0 0.00 0.07 0.00 97 1013.9
20260507000702 49 43 0.0 2.0 0.00 0.07 0.00 97 1013.9
20260507000603 49 41 0.0 2.0 0.00 0.07 0.00 97 1013.9
20260507000503 49 39 0.0 2.0 0.00 0.07 0.00 97 1013.9
20260507000423 49 39 0.0 2.0 0.00 0.07 0.00 97 1013.9
20260507000303 49 28 0.0 1.0 0.00 0.07 0.00 97 1013.9
20260507000204 49 28 0.0 1.0 0.00 0.07 0.00 97 1013.9
20260507000003 49 0 0.0 0.0 0.00 0.07 0.00 97 1013.9
20260506235902 49 0 0.0 0.0 0.00 0.07 0.00 97 1013.8
20260506235802 49 0 0.0 0.0 0.00 0.07 0.00 97 1013.9
20260506235724 49 0 0.0 0.0 0.00 0.07 0.00 97 1013.7
20260506235603 49 0 0.0 0.0 0.00 0.07 0.00 97 1013.7
20260506235503 49 0 0.0 0.0 0.00 0.07 0.00 97 1014.0
20260506235403 49 0 0.0 0.0 0.00 0.07 0.00 97 1013.8
20260506235306 49 0 0.0 0.0 0.00 0.07 0.00 97 1013.7
20260506235203 49 0 0.0 0.0 0.00 0.07 0.00 97 1013.8
20260506235124 49 22 0.0 1.0 0.00 0.07 0.00 97 1013.9
20260506235023 49 22 0.0 1.0 0.00 0.07 0.00 97 1013.9
20260506234903 49 20 0.0 1.0 0.00 0.07 0.00 96 1014.0
20260506234823 49 20 0.0 1.0 0.00 0.07 0.00 96 1014.0
20260506234724 49 20 0.0 1.0 0.00 0.07 0.00 96 1014.0
20260506234602 49 19 0.0 1.0 0.00 0.07 0.00 96 1014.0
20260506234523 49 19 0.0 1.0 0.00 0.07 0.00 96 1014.1
20260506234402 49 19 0.0 1.0 0.00 0.07 0.00 96 1014.1
20260506234303 49 19 0.0 1.0 0.00 0.07 0.00 96 1014.0
20260506234203 49 19 0.0 1.0 0.00 0.07 0.00 96 1013.9
20260506234103 50 19 0.0 1.0 0.00 0.07 0.00 96 1014.0
20260506234003 50 18 0.0 1.0 0.00 0.07 0.00 96 1014.1
20260506233902 50 18 0.0 1.0 0.00 0.07 0.00 96 1014.1
20260506233803 50 18 0.0 1.0 0.00 0.07 0.00 96 1014.0
20260506233724 50 18 0.0 1.0 0.00 0.07 0.00 96 1014.0
20260506233603 49 0 0.0 0.0 0.00 0.07 0.00 96 1014.1
20260506233503 49 0 0.0 0.0 0.00 0.07 0.00 96 1014.1
20260506233403 49 0 0.0 0.0 0.00 0.07 0.00 96 1014.0
20260506233303 49 0 0.0 0.0 0.00 0.07 0.00 96 1014.1
20260506233202 50 0 0.0 0.0 0.00 0.07 0.00 96 1014.2
20260506233124 50 0 0.0 0.0 0.00 0.07 0.00 96 1014.0
20260506233003 50 0 0.0 0.0 0.00 0.07 0.00 96 1014.0
20260506232903 50 0 0.0 0.0 0.00 0.07 0.00 96 1014.0
20260506232824 50 0 0.0 0.0 0.00 0.07 0.00 96 1014.0
20260506232703 50 0 0.0 0.0 0.00 0.07 0.00 96 1014.1
20260506232603 50 0 0.0 0.0 0.00 0.07 0.00 96 1014.1
20260506232502 50 0 0.0 0.0 0.00 0.07 0.00 96 1014.0
20260506232403 50 0 0.0 0.0 0.00 0.07 0.00 96 1014.1
20260506232306 50 0 0.0 0.0 0.00 0.07 0.00 96 1014.0
20260506232202 50 0 0.0 0.0 0.00 0.07 0.00 96 1014.1
20260506232124 50 0 0.0 0.0 0.00 0.07 0.00 96 1014.1
20260506232024 50 0 0.0 0.0 0.00 0.07 0.00 96 1014.0
20260506231903 50 0 0.0 0.0 0.00 0.07 0.00 96 1014.0
20260506231803 51 0 0.0 0.0 0.00 0.07 0.00 96 1014.0
20260506231703 51 0 0.0 0.0 0.00 0.07 0.00 96 1014.1
20260506231603 51 0 0.0 0.0 0.00 0.07 0.00 96 1013.9
20260506231503 51 0 0.0 0.0 0.00 0.07 0.00 96 1013.9
20260506231403 51 0 0.0 0.0 0.00 0.07 0.00 95 1014.0
20260506231323 51 0 0.0 0.0 0.00 0.07 0.00 95 1013.8
20260506231224 51 0 0.0 0.0 0.00 0.07 0.00 95 1013.9
20260506231103 51 0 0.0 0.0 0.00 0.07 0.00 95 1014.1
20260506231003 51 0 0.0 0.0 0.00 0.07 0.00 95 1014.2
20260506230903 51 0 0.0 0.0 0.00 0.07 0.00 95 1014.0
20260506230803 51 0 0.0 0.0 0.00 0.07 0.00 95 1014.0
20260506230703 51 0 0.0 0.0 0.00 0.07 0.00 95 1014.2
20260506230624 51 0 0.0 0.0 0.00 0.07 0.00 95 1014.2
20260506230502 51 0 0.0 0.0 0.00 0.07 0.00 95 1014.2
20260506230402 51 0 0.0 0.0 0.00 0.07 0.00 95 1014.2
20260506230302 51 0 0.0 0.0 0.00 0.07 0.00 95 1014.2
20260506230203 51 0 0.0 0.0 0.00 0.07 0.00 95 1014.2
20260506230103 51 0 0.0 0.0 0.00 0.07 0.00 95 1014.1
20260506230003 51 0 0.0 0.0 0.00 0.07 0.00 95 1014.1
20260506225903 51 0 0.0 0.0 0.00 0.07 0.00 95 1014.2
20260506225802 51 0 0.0 0.0 0.00 0.07 0.00 95 1014.2
20260506225703 51 0 0.0 0.0 0.00 0.07 0.00 95 1014.1
20260506225603 51 0 0.0 0.0 0.00 0.07 0.00 95 1014.3
20260506225503 51 0 0.0 0.0 0.00 0.07 0.00 95 1014.1
20260506225403 51 0 0.0 0.0 0.00 0.07 0.00 95 1014.3
20260506225305 51 0 0.0 0.0 0.00 0.07 0.00 95 1014.0
20260506225203 51 0 0.0 0.0 0.00 0.07 0.00 95 1014.0
20260506225124 51 0 0.0 0.0 0.00 0.07 0.00 95 1014.2
20260506225003 51 0 0.0 0.0 0.00 0.07 0.00 95 1014.2
20260506224903 51 0 0.0 0.0 0.00 0.07 0.00 95 1014.3
20260506224802 51 0 0.0 0.0 0.00 0.07 0.00 94 1014.3
20260506224724 51 0 0.0 0.0 0.00 0.07 0.00 94 1014.1
20260506224603 51 0 0.0 0.0 0.00 0.07 0.00 94 1014.3
20260506224503 51 0 0.0 0.0 0.00 0.07 0.00 94 1014.4
20260506224423 51 0 0.0 0.0 0.00 0.07 0.00 94 1014.3
20260506224303 51 0 0.0 0.0 0.00 0.07 0.00 94 1014.3
20260506224224 51 0 0.0 0.0 0.00 0.07 0.00 94 1014.3
20260506224103 51 0 0.0 0.0 0.00 0.07 0.00 94 1014.4
20260506224003 52 0 0.0 0.0 0.00 0.07 0.00 94 1014.3
20260506223903 52 0 0.0 0.0 0.00 0.07 0.00 94 1014.4
20260506223824 52 0 0.0 0.0 0.00 0.07 0.00 94 1014.4
20260506223723 52 0 0.0 0.0 0.00 0.07 0.00 94 1014.5
20260506223624 52 0 0.0 0.0 0.00 0.07 0.00 94 1014.2
20260506223503 52 0 0.0 0.0 0.00 0.07 0.00 94 1014.2
20260506223403 52 0 0.0 0.0 0.00 0.07 0.00 94 1014.4
20260506223303 52 0 0.0 0.0 0.00 0.07 0.00 94 1014.4
20260506223202 52 0 0.0 0.0 0.00 0.07 0.00 94 1014.5
20260506223103 52 0 0.0 0.0 0.00 0.07 0.00 94 1014.5
20260506223024 52 0 0.0 0.0 0.00 0.07 0.00 94 1014.4
20260506222903 52 0 0.0 0.0 0.00 0.07 0.00 94 1014.5
20260506222803 52 0 0.0 0.0 0.00 0.07 0.00 94 1014.4
20260506222703 52 0 0.0 0.0 0.00 0.07 0.00 94 1014.5
20260506222602 52 0 0.0 0.0 0.00 0.07 0.00 94 1014.4
20260506222503 52 0 0.0 0.0 0.00 0.07 0.00 94 1014.5
20260506222403 52 0 0.0 0.0 0.00 0.07 0.00 94 1014.4
20260506222305 52 0 0.0 0.0 0.00 0.07 0.00 94 1014.4
20260506222202 52 0 0.0 0.0 0.00 0.07 0.00 94 1014.4
20260506222103 52 0 0.0 0.0 0.00 0.07 0.00 94 1014.5
20260506222003 52 0 0.0 0.0 0.00 0.07 0.00 94 1014.5
20260506221924 52 0 0.0 0.0 0.00 0.07 0.00 94 1014.5
20260506221803 52 0 0.0 0.0 0.00 0.07 0.00 94 1014.5
20260506221703 52 0 0.0 0.0 0.00 0.07 0.00 94 1014.5
20260506221603 52 0 0.0 0.0 0.00 0.07 0.00 94 1014.6
20260506221524 52 0 0.0 0.0 0.00 0.07 0.00 94 1014.6
20260506221403 52 0 0.0 0.0 0.00 0.07 0.00 93 1014.6
20260506221303 52 0 0.0 0.0 0.00 0.07 0.00 93 1014.6
20260506221224 52 0 0.0 0.0 0.00 0.07 0.00 93 1014.6
20260506221103 52 0 0.0 0.0 0.00 0.07 0.00 93 1014.6
20260506221002 52 0 0.0 0.0 0.00 0.07 0.00 93 1014.6
20260506220903 52 0 0.0 0.0 0.00 0.07 0.00 93 1014.7
20260506220803 52 0 0.0 0.0 0.00 0.07 0.00 93 1014.8
20260506220724 52 0 0.0 0.0 0.00 0.07 0.00 93 1014.8
20260506220603 52 0 0.0 0.0 0.00 0.07 0.00 93 1014.7
20260506220503 52 0 0.0 0.0 0.00 0.07 0.00 93 1014.7
20260506220402 52 0 0.0 0.0 0.00 0.07 0.00 93 1014.9
20260506220324 52 0 0.0 0.0 0.00 0.07 0.00 93 1014.8
20260506220224 52 0 0.0 0.0 0.00 0.07 0.00 93 1014.7
20260506220025 52 0 0.0 0.0 0.00 0.07 0.00 93 1014.7
20260506215903 52 0 0.0 0.0 0.00 0.07 0.07 93 1014.8
20260506215803 52 0 0.0 0.0 0.00 0.07 0.07 93 1014.8
20260506215702 52 0 0.0 0.0 0.00 0.07 0.07 93 1014.7
20260506215602 53 0 0.0 0.0 0.00 0.07 0.07 93 1014.7
20260506215503 53 0 0.0 0.0 0.00 0.07 0.07 93 1014.7
20260506215403 53 0 0.0 0.0 0.00 0.07 0.07 92 1014.8
20260506215305 53 0 0.0 0.0 0.00 0.07 0.07 92 1014.8
20260506215224 53 0 0.0 0.0 0.00 0.07 0.07 92 1014.8
20260506215103 53 0 0.0 0.0 0.00 0.07 0.07 92 1014.8
20260506215003 53 0 0.0 0.0 0.00 0.07 0.07 92 1014.6
20260506214903 53 16 0.0 1.0 0.00 0.07 0.07 92 1014.6
20260506214803 53 16 0.0 1.0 0.00 0.07 0.07 92 1014.8
20260506214703 53 16 0.0 1.0 0.00 0.07 0.07 92 1014.7
20260506214603 53 16 0.0 1.0 0.00 0.07 0.07 92 1014.8
20260506214503 53 16 0.0 1.0 0.00 0.07 0.07 92 1014.8
20260506214403 53 16 0.0 1.0 0.00 0.07 0.07 92 1014.9
20260506214303 53 16 0.0 1.0 0.00 0.07 0.07 92 1014.6
20260506214203 53 16 0.0 1.0 0.00 0.07 0.07 92 1014.5
20260506214103 53 16 0.0 1.0 0.00 0.07 0.07 92 1014.8
20260506214003 53 16 0.0 1.0 0.00 0.07 0.07 92 1014.8
20260506213902 53 16 0.0 1.0 0.00 0.07 0.07 92 1014.8
20260506213803 53 0 0.0 0.0 0.00 0.07 0.07 92 1014.8
20260506213703 53 0 0.0 0.0 0.00 0.07 0.07 92 1014.7
20260506213603 53 17 0.0 1.0 0.00 0.07 0.07 92 1014.7
20260506213503 53 17 0.0 1.0 0.00 0.07 0.07 92 1014.7
20260506213403 53 17 0.0 1.0 0.00 0.07 0.07 92 1014.7
20260506213303 53 17 0.0 1.0 0.00 0.07 0.07 92 1014.8
20260506213224 53 17 0.0 1.0 0.00 0.07 0.07 92 1014.9
20260506213103 53 17 0.0 1.0 0.00 0.07 0.07 92 1014.8
20260506213003 53 17 0.0 1.0 0.00 0.07 0.07 91 1014.8
20260506212903 53 17 0.0 1.0 0.00 0.07 0.07 91 1014.7
20260506212803 53 17 0.0 1.0 0.00 0.07 0.07 91 1014.8
20260506212702 53 17 0.0 1.0 0.00 0.07 0.07 91 1014.7
20260506212624 53 17 0.0 1.0 0.00 0.07 0.07 91 1014.7
20260506212503 53 16 0.0 1.0 0.00 0.07 0.07 91 1014.8
20260506212402 53 16 0.0 1.0 0.00 0.07 0.07 91 1014.8
20260506212306 53 16 0.0 1.0 0.00 0.07 0.07 91 1014.9
20260506212224 53 16 0.0 1.0 0.00 0.07 0.07 91 1014.8
20260506212103 53 16 0.0 1.0 0.00 0.07 0.07 91 1014.8
20260506212003 53 16 0.0 2.0 0.00 0.07 0.07 91 1014.7
20260506211902 53 16 0.0 2.0 0.00 0.07 0.07 91 1014.9
20260506211803 53 16 0.0 2.0 0.00 0.07 0.07 91 1014.8
20260506211702 53 16 0.0 2.0 0.00 0.07 0.07 91 1014.9
20260506211624 53 16 0.0 2.0 0.00 0.07 0.07 91 1014.7
20260506211503 53 16 0.0 2.0 0.00 0.07 0.07 91 1014.8
20260506211403 53 16 0.0 2.0 0.00 0.07 0.07 91 1014.8
20260506211303 53 17 1.0 2.0 0.00 0.07 0.07 91 1014.7
20260506211203 53 17 0.0 2.0 0.00 0.07 0.07 91 1014.7
20260506211103 53 17 1.0 2.0 0.00 0.07 0.07 91 1014.9
20260506211003 53 17 0.0 1.0 0.00 0.07 0.07 91 1014.7
20260506210903 53 17 0.0 1.0 0.00 0.07 0.07 91 1014.8
20260506210803 53 17 0.0 1.0 0.00 0.07 0.07 91 1014.8
20260506210703 53 17 0.0 1.0 0.00 0.07 0.07 91 1014.8
20260506210624 53 17 0.0 1.0 0.00 0.07 0.07 91 1014.8
20260506210503 53 17 0.0 1.0 0.00 0.07 0.07 91 1014.8
20260506210403 53 17 0.0 1.0 0.00 0.07 0.07 90 1014.6
20260506210303 53 17 0.0 1.0 0.00 0.07 0.07 90 1014.8
20260506210203 53 17 0.0 1.0 0.00 0.07 0.07 90 1014.6
20260506210124 53 17 0.0 1.0 0.00 0.07 0.07 90 1014.7
20260506210003 53 17 0.0 1.0 0.00 0.07 0.07 90 1014.9
20260506205903 53 17 0.0 1.0 0.00 0.07 0.07 90 1014.6
20260506205803 53 17 0.0 1.0 0.00 0.07 0.07 90 1014.8
20260506205724 53 17 0.0 1.0 0.00 0.07 0.07 90 1014.8
20260506205603 53 17 0.0 1.0 0.00 0.07 0.07 90 1015.0
20260506205503 53 17 0.0 1.0 0.00 0.07 0.07 90 1014.7
20260506205403 53 17 0.0 1.0 0.00 0.07 0.07 90 1014.7
20260506205305 53 16 0.0 1.0 0.00 0.07 0.07 90 1014.9
20260506205224 53 16 0.0 1.0 0.00 0.07 0.07 90 1014.9
20260506205103 53 16 0.0 1.0 0.00 0.07 0.07 90 1014.9
20260506205003 53 16 0.0 1.0 0.00 0.07 0.07 90 1014.8
20260506204903 53 16 0.0 1.0 0.00 0.07 0.07 90 1014.9
20260506204803 53 16 0.0 1.0 0.00 0.07 0.07 89 1014.9
20260506204703 53 16 1.0 1.0 0.00 0.07 0.07 89 1014.7
20260506204624 53 16 1.0 1.0 0.00 0.07 0.07 89 1014.8
20260506204503 53 16 1.0 1.0 0.00 0.07 0.07 89 1014.8
20260506204424 53 16 1.0 1.0 0.00 0.07 0.07 89 1014.7
20260506204303 53 16 1.0 1.0 0.00 0.07 0.07 89 1014.7
20260506204203 53 16 1.0 1.0 0.00 0.07 0.07 89 1014.9
20260506204124 53 16 1.0 1.0 0.00 0.07 0.07 89 1014.8
20260506204003 53 16 1.0 1.0 0.00 0.07 0.07 89 1014.7
20260506203903 54 16 1.0 1.0 0.00 0.07 0.07 89 1014.9
20260506203803 54 16 1.0 1.0 0.00 0.07 0.07 89 1014.9
20260506203703 54 16 1.0 1.0 0.00 0.07 0.07 89 1014.7
20260506203603 54 13 1.0 2.0 0.00 0.07 0.07 89 1014.8
20260506203503 54 13 1.0 2.0 0.00 0.07 0.07 89 1014.8
20260506203403 54 14 1.0 2.0 0.00 0.07 0.07 89 1014.8
20260506203303 54 13 1.0 2.0 0.00 0.07 0.07 89 1014.8
20260506203203 54 10 1.0 3.0 0.00 0.07 0.07 88 1014.8
20260506203103 54 10 1.0 3.0 0.00 0.07 0.07 88 1014.7
20260506203003 54 11 2.0 3.0 0.00 0.07 0.07 88 1014.6
20260506202903 54 11 1.0 3.0 0.00 0.07 0.07 88 1014.7
20260506202803 54 10 2.0 3.0 0.00 0.07 0.07 88 1014.6
20260506202703 54 10 2.0 3.0 0.00 0.07 0.07 88 1014.5
20260506202603 54 10 2.0 3.0 0.00 0.07 0.07 88 1014.6
20260506202503 54 12 2.0 3.0 0.00 0.07 0.07 88 1014.6
20260506202404 54 12 2.0 3.0 0.00 0.07 0.07 88 1014.7
20260506202306 54 11 2.0 3.0 0.00 0.07 0.07 89 1014.7
20260506202203 54 12 2.0 3.0 0.00 0.07 0.07 89 1014.5
20260506202103 54 12 1.0 2.0 0.00 0.07 0.07 89 1014.5
20260506202024 54 12 1.0 2.0 0.00 0.07 0.07 89 1014.5
20260506201903 54 12 2.0 3.0 0.00 0.07 0.07 88 1014.6
20260506201803 54 13 2.0 3.0 0.00 0.07 0.07 88 1014.5
20260506201703 54 13 2.0 3.0 0.00 0.07 0.07 88 1014.6
20260506201603 54 13 2.0 3.0 0.00 0.07 0.07 88 1014.5
20260506201503 54 13 2.0 3.0 0.00 0.07 0.07 88 1014.5
20260506201403 54 13 2.0 3.0 0.00 0.07 0.07 88 1014.6
20260506201303 54 13 1.0 3.0 0.00 0.07 0.07 88 1014.5
20260506201203 54 15 1.0 3.0 0.00 0.07 0.07 88 1014.5
20260506201124 54 17 1.0 3.0 0.00 0.07 0.07 88 1014.4
20260506201003 54 16 1.0 3.0 0.00 0.07 0.07 88 1014.5
20260506200903 54 17 1.0 2.0 0.00 0.07 0.07 88 1014.5
20260506200803 54 17 1.0 2.0 0.00 0.07 0.07 88 1014.5
20260506200703 54 17 1.0 2.0 0.00 0.07 0.07 88 1014.5
20260506200603 54 17 1.0 2.0 0.00 0.07 0.07 88 1014.7
20260506200503 54 16 1.0 2.0 0.00 0.07 0.07 88 1014.6
20260506200403 54 16 1.0 2.0 0.00 0.07 0.07 88 1014.6
20260506200303 55 17 1.0 2.0 0.00 0.07 0.07 88 1014.5
20260506200203 55 16 1.0 2.0 0.00 0.07 0.07 88 1014.6
20260506200124 55 16 1.0 2.0 0.00 0.07 0.07 88 1014.6
20260506200024 55 16 1.0 2.0 0.00 0.07 0.07 88 1014.7
20260506195903 55 16 1.0 2.0 0.00 0.07 0.07 88 1014.6
20260506195803 55 16 1.0 2.0 0.00 0.07 0.07 88 1014.7
20260506195703 55 17 1.0 2.0 0.00 0.07 0.07 88 1014.5
20260506195603 55 17 1.0 2.0 0.00 0.07 0.07 88 1014.5
20260506195503 55 17 1.0 2.0 0.00 0.07 0.07 88 1014.5
20260506195403 55 19 1.0 2.0 0.00 0.07 0.07 88 1014.5
20260506195305 55 19 1.0 2.0 0.00 0.07 0.07 88 1014.6
20260506195203 55 19 1.0 2.0 0.00 0.07 0.07 88 1014.7
20260506195103 55 20 1.0 2.0 0.00 0.07 0.07 88 1014.6
20260506195003 55 20 1.0 2.0 0.00 0.07 0.07 88 1014.7
20260506194903 55 23 1.0 2.0 0.00 0.07 0.07 88 1014.6
20260506194803 55 23 1.0 2.0 0.00 0.07 0.07 88 1014.7
20260506194703 55 21 1.0 2.0 0.00 0.07 0.07 87 1014.6
20260506194603 55 20 1.0 2.0 0.00 0.07 0.07 87 1014.4
20260506194503 55 19 1.0 2.0 0.00 0.07 0.07 87 1014.6
20260506194403 55 19 1.0 2.0 0.00 0.07 0.07 87 1014.6
20260506194303 55 17 1.0 3.0 0.00 0.07 0.07 87 1014.5
20260506194203 55 14 1.0 3.0 0.00 0.07 0.07 87 1014.4
20260506194103 55 13 1.0 3.0 0.00 0.07 0.07 87 1014.5
20260506194003 55 12 2.0 3.0 0.00 0.07 0.07 87 1014.6
20260506193903 55 12 1.0 3.0 0.00 0.07 0.07 87 1014.5
20260506193803 56 11 1.0 3.0 0.00 0.07 0.07 87 1014.5
20260506193703 56 11 1.0 3.0 0.00 0.07 0.07 87 1014.6
20260506193603 56 10 1.0 3.0 0.00 0.07 0.07 87 1014.6
20260506193503 56 9 1.0 3.0 0.00 0.07 0.07 87 1014.4
20260506193424 56 10 2.0 3.0 0.00 0.07 0.07 87 1014.8
20260506193303 56 11 2.0 3.0 0.00 0.07 0.07 87 1014.7
20260506193203 56 13 1.0 3.0 0.00 0.07 0.07 87 1014.7
20260506193103 56 16 1.0 2.0 0.00 0.07 0.07 87 1014.6
20260506193003 56 17 1.0 2.0 0.00 0.07 0.07 87 1014.5
20260506192903 56 17 1.0 2.0 0.00 0.07 0.07 87 1014.5
20260506192803 56 17 1.0 2.0 0.00 0.07 0.07 86 1014.6
20260506192724 56 17 1.0 2.0 0.00 0.07 0.07 86 1014.8
20260506192603 56 17 1.0 2.0 0.00 0.07 0.07 86 1014.8
20260506192503 56 17 1.0 2.0 0.00 0.07 0.07 86 1014.8
20260506192424 56 17 1.0 2.0 0.00 0.07 0.07 86 1014.8
20260506192305 56 18 1.0 2.0 0.00 0.07 0.07 86 1014.6
20260506192203 56 13 1.0 3.0 0.00 0.07 0.07 86 1014.7
20260506192124 56 13 1.0 3.0 0.00 0.07 0.07 86 1014.7
20260506192003 57 12 1.0 3.0 0.00 0.07 0.07 86 1014.6
20260506191903 57 12 1.0 3.0 0.00 0.07 0.07 86 1014.6
20260506191803 57 11 1.0 3.0 0.00 0.07 0.07 86 1014.6
20260506191703 57 10 1.0 3.0 0.00 0.07 0.07 86 1014.5
20260506191603 57 9 1.0 3.0 0.00 0.07 0.07 85 1014.5
20260506191503 57 9 1.0 3.0 0.00 0.07 0.07 85 1014.6
20260506191403 57 7 1.0 4.0 0.00 0.07 0.07 85 1014.6
20260506191303 57 7 1.0 4.0 0.00 0.07 0.07 85 1014.5
20260506191203 57 6 1.0 4.0 0.00 0.07 0.07 85 1014.5
20260506191103 57 8 1.0 4.0 0.00 0.07 0.07 85 1014.5
20260506191003 57 8 1.0 4.0 0.00 0.07 0.07 85 1014.6
20260506190903 57 8 1.0 4.0 0.00 0.07 0.07 85 1014.6
20260506190803 57 8 1.0 4.0 0.00 0.07 0.07 84 1014.6
20260506190724 57 9 1.0 4.0 0.00 0.07 0.07 84 1014.5
20260506190624 57 9 1.0 4.0 0.00 0.07 0.07 84 1014.5
20260506190503 57 7 1.0 4.0 0.00 0.07 0.07 84 1014.4
20260506190403 57 7 1.0 3.0 0.00 0.07 0.07 84 1014.4
20260506190324 57 7 1.0 3.0 0.00 0.07 0.07 84 1014.4
20260506190203 57 9 2.0 3.0 0.00 0.07 0.07 84 1014.5
20260506190003 57 11 2.0 3.0 0.00 0.07 0.07 83 1014.3
20260506185903 57 10 2.0 6.0 0.00 0.07 0.07 83 1014.4
20260506185824 57 10 2.0 6.0 0.00 0.07 0.07 83 1014.4
20260506185703 57 10 2.0 6.0 0.00 0.07 0.07 83 1014.5
20260506185603 58 11 2.0 6.0 0.00 0.07 0.07 83 1014.6
20260506185503 58 11 3.0 6.0 0.00 0.07 0.07 83 1014.5
20260506185403 58 15 3.0 6.0 0.00 0.07 0.07 83 1014.5
20260506185324 58 15 3.0 6.0 0.00 0.07 0.07 83 1014.7
20260506185203 58 15 2.0 6.0 0.00 0.07 0.07 83 1014.5
20260506185103 58 14 2.0 6.0 0.00 0.07 0.07 82 1014.5
20260506185003 58 14 2.0 6.0 0.00 0.07 0.07 82 1014.5
20260506184903 58 14 2.0 6.0 0.00 0.07 0.07 82 1014.7
20260506184824 58 14 2.0 6.0 0.00 0.07 0.07 82 1014.7
20260506184703 58 14 2.0 6.0 0.00 0.07 0.07 82 1014.3
20260506184603 58 15 2.0 6.0 0.00 0.07 0.07 82 1014.7
20260506184503 58 14 2.0 6.0 0.00 0.07 0.07 82 1014.5
20260506184424 58 13 2.0 6.0 0.00 0.07 0.07 82 1014.5
20260506184324 58 11 2.0 3.0 0.00 0.07 0.07 82 1014.5
20260506184203 58 12 2.0 3.0 0.00 0.07 0.07 82 1014.6
20260506184103 58 12 2.0 3.0 0.00 0.07 0.07 82 1014.4
20260506184003 58 13 2.0 3.0 0.00 0.07 0.07 82 1014.5
20260506183903 58 13 2.0 3.0 0.00 0.07 0.07 82 1014.5
20260506183803 58 13 2.0 3.0 0.00 0.07 0.07 82 1014.5
20260506183703 58 12 2.0 6.0 0.00 0.07 0.07 82 1014.4
20260506183603 58 11 2.0 6.0 0.00 0.07 0.07 82 1014.6
20260506183503 58 16 2.0 6.0 0.00 0.07 0.07 82 1014.4
20260506183403 58 16 2.0 6.0 0.00 0.07 0.07 82 1014.6
20260506183303 58 16 2.0 6.0 0.00 0.07 0.07 81 1014.6
20260506183203 57 15 2.0 6.0 0.00 0.07 0.07 81 1014.4
20260506183103 57 16 2.0 6.0 0.00 0.07 0.07 81 1014.6
20260506183003 57 16 2.0 6.0 0.00 0.07 0.07 81 1014.4
20260506182903 57 16 2.0 6.0 0.00 0.07 0.07 81 1014.4
20260506182803 57 16 2.0 6.0 0.00 0.07 0.07 81 1014.7
20260506182703 57 16 2.0 6.0 0.00 0.07 0.07 81 1014.6
20260506182603 57 18 2.0 4.0 0.00 0.07 0.07 81 1014.4
20260506182503 57 17 2.0 4.0 0.00 0.07 0.07 81 1014.7
20260506182403 57 8 3.0 7.0 0.00 0.07 0.07 82 1014.4
20260506182306 57 10 3.0 7.0 0.00 0.07 0.07 82 1014.5
20260506182203 57 10 3.0 7.0 0.00 0.07 0.07 82 1014.6
20260506182103 57 8 3.0 8.0 0.00 0.07 0.07 83 1014.6
20260506182004 57 8 3.0 8.0 0.00 0.07 0.07 83 1014.6
20260506181903 57 9 3.0 8.0 0.00 0.07 0.07 82 1014.5
20260506181803 57 9 3.0 8.0 0.00 0.07 0.07 82 1014.4
20260506181703 57 8 4.0 8.0 0.00 0.07 0.07 82 1014.4
20260506181604 57 8 4.0 8.0 0.00 0.07 0.07 82 1014.6
20260506181503 57 9 4.0 8.0 0.00 0.07 0.07 82 1014.6
20260506181403 57 14 3.0 8.0 0.00 0.07 0.07 82 1014.6
20260506181303 57 13 3.0 8.0 0.00 0.07 0.07 82 1014.6
20260506181224 57 13 3.0 8.0 0.00 0.07 0.07 82 1014.6
20260506181124 57 15 3.0 8.0 0.00 0.07 0.07 82 1014.5
20260506181024 58 19 3.0 7.0 0.00 0.07 0.07 82 1014.6
20260506180903 58 20 2.0 7.0 0.00 0.07 0.07 82 1014.5
20260506180803 58 21 2.0 6.0 0.00 0.07 0.07 82 1014.5
20260506180724 58 18 3.0 6.0 0.00 0.07 0.07 82 1014.7
20260506180603 58 17 3.0 6.0 0.00 0.07 0.07 81 1014.6
20260506180503 58 19 3.0 6.0 0.00 0.07 0.07 81 1014.5
20260506180403 58 23 3.0 6.0 0.00 0.07 0.07 81 1014.7
20260506180303 59 21 3.0 6.0 0.00 0.07 0.07 81 1014.5
20260506180203 59 22 3.0 8.0 0.00 0.07 0.07 81 1014.5
20260506180124 59 23 3.0 8.0 0.00 0.07 0.07 81 1014.5
20260506180004 59 17 3.0 8.0 0.00 0.07 0.07 80 1014.5
20260506175903 59 17 4.0 8.0 0.00 0.07 0.07 80 1014.5
20260506175803 59 16 4.0 8.0 0.00 0.07 0.07 79 1014.5
20260506175703 59 18 4.0 8.0 0.00 0.07 0.07 80 1014.5
20260506175603 59 20 4.0 8.0 0.00 0.07 0.07 80 1014.6
20260506175503 59 20 4.0 8.0 0.00 0.07 0.07 80 1014.6
20260506175403 59 12 4.0 10.0 0.00 0.07 0.07 80 1014.7
20260506175306 59 8 4.0 10.0 0.00 0.07 0.07 80 1014.6
20260506175203 59 7 4.0 10.0 0.00 0.07 0.07 81 1014.6
20260506175103 59 3 4.0 10.0 0.00 0.07 0.07 81 1014.8
20260506175003 59 360 4.0 10.0 0.00 0.07 0.07 81 1014.6
20260506174903 59 360 4.0 10.0 0.00 0.07 0.07 81 1014.6
20260506174803 59 356 4.0 10.0 0.00 0.07 0.07 81 1014.7
20260506174724 59 357 4.0 10.0 0.00 0.07 0.07 81 1014.6
20260506174603 60 355 4.0 10.0 0.00 0.07 0.07 80 1014.6
20260506174503 60 355 4.0 10.0 0.00 0.07 0.07 79 1014.7
20260506174403 60 357 3.0 7.0 0.00 0.07 0.07 80 1014.7
20260506174303 60 358 4.0 8.0 0.00 0.07 0.07 80 1014.6
20260506174203 60 356 4.0 8.0 0.00 0.07 0.07 80 1014.7
20260506174103 60 359 5.0 8.0 0.00 0.07 0.07 79 1014.6
20260506174003 60 355 5.0 8.0 0.00 0.07 0.07 78 1014.7
20260506173903 60 356 5.0 8.0 0.00 0.07 0.07 78 1014.7
20260506173803 60 357 5.0 8.0 0.00 0.07 0.07 78 1014.6
20260506173703 60 353 5.0 8.0 0.00 0.07 0.07 79 1014.6
20260506173603 60 355 5.0 8.0 0.00 0.07 0.07 78 1014.6
20260506173503 60 355 5.0 8.0 0.00 0.07 0.07 78 1014.6
20260506173403 60 354 5.0 8.0 0.00 0.07 0.07 78 1014.8
20260506173303 60 355 4.0 8.0 0.00 0.07 0.07 77 1014.6
20260506173203 60 356 4.0 8.0 0.00 0.07 0.07 76 1014.8
20260506173103 60 357 4.0 8.0 0.00 0.07 0.07 76 1014.8
20260506173003 61 355 3.0 8.0 0.00 0.07 0.07 76 1014.8
20260506172903 61 356 3.0 8.0 0.00 0.07 0.07 75 1014.9
20260506172803 62 356 3.0 8.0 0.00 0.07 0.07 74 1014.8
20260506172703 62 359 3.0 6.0 0.00 0.07 0.07 75 1014.9
20260506172603 61 3 2.0 6.0 0.00 0.07 0.07 75 1014.9
20260506172503 61 2 2.0 6.0 0.00 0.07 0.07 76 1014.8
20260506172403 61 3 3.0 6.0 0.00 0.07 0.07 75 1014.9
20260506172306 61 3 3.0 6.0 0.00 0.07 0.07 75 1014.8
20260506172203 61 5 3.0 6.0 0.00 0.07 0.07 75 1014.9
20260506172124 61 5 3.0 6.0 0.00 0.07 0.07 75 1014.9
20260506172003 61 8 3.0 6.0 0.00 0.07 0.07 75 1014.8
20260506171903 61 13 3.0 6.0 0.00 0.07 0.07 76 1015.0
20260506171803 61 12 3.0 7.0 0.00 0.07 0.07 75 1014.9
20260506171703 61 12 3.0 7.0 0.00 0.07 0.07 75 1014.8
20260506171603 61 12 3.0 7.0 0.00 0.07 0.07 75 1014.8
20260506171503 61 13 3.0 7.0 0.00 0.07 0.07 75 1015.0
20260506171403 61 13 3.0 7.0 0.00 0.07 0.07 75 1014.8
20260506171324 61 10 3.0 7.0 0.00 0.07 0.07 75 1014.9
20260506171224 61 6 3.0 7.0 0.00 0.07 0.07 75 1014.8
20260506171124 61 359 3.0 7.0 0.00 0.07 0.07 75 1014.8
20260506171003 61 356 3.0 7.0 0.00 0.07 0.07 74 1014.9
20260506170903 61 352 3.0 7.0 0.00 0.07 0.07 73 1014.9
20260506170803 62 350 3.0 7.0 0.00 0.07 0.07 72 1015.0
20260506170725 62 347 3.0 7.0 0.00 0.07 0.07 72 1014.9
20260506170603 61 346 3.0 7.0 0.00 0.07 0.07 72 1014.7
20260506170503 61 347 3.0 7.0 0.00 0.07 0.07 72 1015.0
20260506170403 61 341 3.0 7.0 0.00 0.07 0.07 73 1014.7
20260506170303 61 344 3.0 7.0 0.00 0.07 0.07 71 1015.0
20260506170203 61 346 2.0 7.0 0.00 0.07 0.07 72 1014.8
20260506170124 61 346 2.0 7.0 0.00 0.07 0.07 72 1014.8
20260506170004 61 356 2.0 4.0 0.00 0.07 0.07 71 1014.9
20260506165903 61 356 2.0 4.0 0.00 0.07 0.07 71 1014.9
20260506165824 62 360 2.0 3.0 0.00 0.07 0.07 71 1014.7
20260506165703 62 355 2.0 4.0 0.00 0.07 0.07 70 1014.8
20260506165603 62 351 2.0 6.0 0.00 0.07 0.07 73 1014.9
20260506165503 62 355 2.0 7.0 0.00 0.07 0.07 73 1014.9
20260506165403 61 352 2.0 7.0 0.00 0.07 0.07 74 1015.0
20260506165324 61 356 3.0 7.0 0.00 0.07 0.07 73 1015.2
20260506165203 60 354 3.0 7.0 0.00 0.07 0.07 74 1014.8
20260506165103 60 352 4.0 7.0 0.00 0.07 0.07 74 1015.1
20260506165003 60 353 4.0 7.0 0.00 0.07 0.07 74 1015.1
20260506164903 60 353 4.0 7.0 0.00 0.07 0.07 74 1014.9
20260506164804 60 350 4.0 9.0 0.00 0.07 0.07 73 1015.0
20260506164724 60 350 4.0 9.0 0.00 0.07 0.07 73 1015.0
20260506164603 60 354 4.0 9.0 0.00 0.07 0.07 72 1014.9
20260506164503 60 351 4.0 9.0 0.00 0.07 0.07 73 1015.0
20260506164403 60 351 4.0 9.0 0.00 0.07 0.07 73 1015.0
20260506164303 60 352 5.0 9.0 0.00 0.07 0.07 72 1015.1
20260506164203 60 349 5.0 9.0 0.00 0.07 0.07 73 1015.0
20260506164103 60 353 5.0 9.0 0.00 0.07 0.07 74 1014.8
20260506164003 60 351 5.0 9.0 0.00 0.07 0.07 74 1015.2
20260506163903 60 352 5.0 9.0 0.00 0.07 0.07 74 1015.2
20260506163803 60 355 5.0 9.0 0.00 0.07 0.07 75 1015.0
20260506163703 60 358 5.0 9.0 0.00 0.07 0.07 76 1015.0
20260506163603 60 359 5.0 9.0 0.00 0.07 0.07 77 1014.9
20260506163503 60 356 5.0 9.0 0.00 0.07 0.07 77 1014.8
20260506163403 60 355 5.0 9.0 0.00 0.07 0.07 78 1014.9
20260506163303 60 356 5.0 9.0 0.00 0.07 0.07 78 1015.0
20260506163203 60 360 4.0 9.0 0.00 0.07 0.07 78 1015.0
20260506163103 60 359 4.0 9.0 0.00 0.07 0.07 79 1015.0
20260506163003 60 2 4.0 9.0 0.00 0.07 0.07 77 1015.0
20260506162903 60 357 4.0 9.0 0.00 0.07 0.07 76 1015.1
20260506162803 60 357 4.0 9.0 0.00 0.07 0.07 76 1015.1
20260506162703 60 353 4.0 9.0 0.00 0.07 0.07 77 1014.9
20260506162603 60 354 4.0 9.0 0.00 0.07 0.07 77 1015.0
20260506162503 60 348 4.0 9.0 0.00 0.07 0.07 76 1015.0
20260506162403 60 349 4.0 9.0 0.00 0.07 0.07 77 1014.9
20260506162306 60 353 3.0 8.0 0.00 0.07 0.07 78 1015.0
20260506162203 60 351 3.0 8.0 0.00 0.07 0.07 79 1015.0
20260506162103 60 352 3.0 8.0 0.00 0.07 0.07 78 1014.8
20260506162024 60 351 3.0 8.0 0.00 0.07 0.07 78 1015.0
20260506161903 60 348 4.0 9.0 0.00 0.07 0.07 77 1015.1
20260506161803 61 354 4.0 9.0 0.00 0.07 0.07 76 1015.0
20260506161703 61 348 4.0 9.0 0.00 0.07 0.07 76 1015.0
20260506161603 61 346 3.0 9.0 0.00 0.07 0.07 76 1015.0
20260506161503 61 352 3.0 9.0 0.00 0.07 0.07 77 1015.0
20260506161403 60 355 3.0 9.0 0.00 0.07 0.07 76 1014.8
20260506161303 60 355 3.0 9.0 0.00 0.07 0.07 76 1014.9
20260506161203 60 355 3.0 9.0 0.00 0.07 0.07 76 1014.9
20260506161103 60 353 3.0 9.0 0.00 0.07 0.07 77 1015.0
20260506161003 60 353 3.0 9.0 0.00 0.07 0.07 76 1015.0
20260506160903 60 354 3.0 9.0 0.00 0.07 0.07 76 1015.0
20260506160803 61 360 3.0 8.0 0.00 0.07 0.07 76 1015.1
20260506160703 61 357 3.0 8.0 0.00 0.07 0.07 76 1015.1
20260506160603 61 4 3.0 8.0 0.00 0.07 0.07 77 1015.1
20260506160503 61 3 3.0 8.0 0.00 0.07 0.07 78 1015.0
20260506160403 60 359 4.0 8.0 0.00 0.07 0.07 78 1015.0
20260506160303 60 359 4.0 8.0 0.00 0.07 0.07 78 1015.2
20260506160203 60 356 4.0 8.0 0.00 0.07 0.07 78 1015.2
20260506160124 59 359 4.0 8.0 0.00 0.07 0.07 79 1015.1
20260506160003 59 356 4.0 8.0 0.00 0.07 0.07 79 1015.2
20260506155903 59 357 5.0 10.0 0.00 0.07 0.07 79 1015.1
20260506155803 59 356 5.0 10.0 0.00 0.07 0.07 80 1015.1
20260506155703 59 353 5.0 10.0 0.00 0.07 0.07 80 1015.2
20260506155603 59 354 5.0 10.0 0.00 0.07 0.07 80 1015.2
20260506155524 59 354 5.0 10.0 0.00 0.07 0.07 80 1015.2
20260506155403 59 355 5.0 10.0 0.00 0.07 0.07 81 1015.1
20260506155305 58 356 5.0 10.0 0.00 0.07 0.07 81 1015.2
20260506155203 58 356 5.0 10.0 0.00 0.07 0.07 81 1015.1
20260506155103 58 358 5.0 10.0 0.00 0.07 0.07 81 1015.2
20260506155003 58 356 5.0 10.0 0.00 0.07 0.07 81 1015.2
20260506154903 58 359 4.0 10.0 0.00 0.07 0.07 81 1015.2
20260506154824 58 356 4.0 9.0 0.00 0.07 0.07 81 1015.2
20260506154724 58 357 4.0 9.0 0.00 0.07 0.07 80 1015.2
20260506154603 59 356 3.0 9.0 0.00 0.07 0.07 81 1015.2
20260506154503 59 348 3.0 7.0 0.00 0.07 0.07 80 1015.1
20260506154424 59 348 3.0 7.0 0.00 0.07 0.07 80 1015.1
20260506154303 59 327 2.0 6.0 0.00 0.07 0.07 82 1015.1
20260506154224 59 327 2.0 6.0 0.00 0.07 0.07 82 1015.1
20260506154103 59 326 3.0 6.0 0.00 0.07 0.07 81 1015.2
20260506154003 59 326 3.0 6.0 0.00 0.07 0.07 81 1015.2
20260506153903 59 329 3.0 6.0 0.00 0.07 0.07 81 1015.1
20260506153803 60 331 3.0 6.0 0.00 0.07 0.07 80 1015.3
20260506153703 60 331 3.0 6.0 0.00 0.07 0.07 80 1015.3
20260506153603 59 336 3.0 10.0 0.00 0.07 0.07 80 1015.2
20260506153524 59 342 3.0 10.0 0.00 0.07 0.07 80 1015.3
20260506153403 59 350 4.0 10.0 0.00 0.07 0.07 80 1015.3
20260506153303 59 355 4.0 10.0 0.00 0.07 0.07 79 1015.2
20260506153203 59 357 4.0 10.0 0.00 0.07 0.07 78 1015.2
20260506153124 59 358 4.0 10.0 0.00 0.07 0.07 79 1015.3
20260506153004 59 358 3.0 10.0 0.00 0.07 0.07 79 1015.1
20260506152903 59 356 3.0 10.0 0.00 0.07 0.07 78 1015.3
20260506152824 59 356 3.0 10.0 0.00 0.07 0.07 77 1015.2
20260506152703 59 352 3.0 10.0 0.00 0.07 0.07 76 1015.1
20260506152603 59 350 3.0 6.0 0.00 0.07 0.07 77 1015.3
20260506152503 60 349 3.0 6.0 0.00 0.07 0.07 75 1015.1
20260506152424 60 349 3.0 6.0 0.00 0.07 0.07 75 1015.1
20260506152305 61 349 3.0 6.0 0.00 0.07 0.07 77 1015.3
20260506152203 60 357 3.0 6.0 0.00 0.07 0.07 76 1015.2
20260506152103 60 358 3.0 6.0 0.00 0.07 0.07 76 1015.2
20260506152004 60 358 3.0 6.0 0.00 0.07 0.07 76 1015.2
20260506151903 60 357 3.0 6.0 0.00 0.07 0.07 75 1015.3
20260506151824 60 356 3.0 6.0 0.00 0.07 0.07 74 1015.3
20260506151703 60 356 3.0 6.0 0.00 0.07 0.07 73 1015.2
20260506151603 60 360 2.0 6.0 0.00 0.07 0.07 73 1015.2
20260506151524 60 1 2.0 6.0 0.00 0.07 0.07 74 1015.2
20260506151424 60 2 2.0 6.0 0.00 0.07 0.07 74 1015.3
20260506151303 60 2 2.0 6.0 0.00 0.07 0.07 74 1015.2
20260506151203 60 2 3.0 6.0 0.00 0.07 0.07 74 1015.4
20260506151124 60 1 2.0 6.0 0.00 0.07 0.07 74 1015.4
20260506151003 60 347 2.0 6.0 0.00 0.07 0.07 75 1015.2
20260506150903 60 337 3.0 6.0 0.00 0.07 0.07 75 1015.3
20260506150803 60 343 3.0 6.0 0.00 0.07 0.07 75 1015.4
20260506150703 60 345 3.0 9.0 0.00 0.07 0.07 75 1015.4
20260506150604 60 345 3.0 9.0 0.00 0.07 0.07 75 1015.4
20260506150503 60 344 3.0 9.0 0.00 0.07 0.07 74 1015.4
20260506150403 60 344 3.0 9.0 0.00 0.07 0.07 74 1015.4
20260506150324 60 344 3.0 9.0 0.00 0.07 0.07 74 1015.4
20260506150203 60 342 3.0 9.0 0.00 0.07 0.07 74 1015.6
20260506150003 60 337 3.0 9.0 0.00 0.07 0.07 74 1015.4
20260506145903 60 336 3.0 9.0 0.00 0.07 0.07 74 1015.5
20260506145824 60 339 3.0 9.0 0.00 0.07 0.07 74 1015.4
20260506145703 60 333 3.0 9.0 0.00 0.07 0.07 74 1015.6
20260506145603 60 319 2.0 6.0 0.00 0.07 0.07 74 1015.6
20260506145503 60 306 2.0 6.0 0.00 0.07 0.07 75 1015.4
20260506145424 60 302 3.0 6.0 0.00 0.07 0.07 74 1015.4
20260506145305 60 299 2.0 6.0 0.00 0.07 0.07 76 1015.5
20260506145224 60 294 3.0 6.0 0.00 0.07 0.07 76 1015.6
20260506145124 60 294 3.0 6.0 0.00 0.07 0.07 76 1015.6
20260506145003 61 293 2.0 6.0 0.00 0.07 0.07 76 1015.6
20260506144903 60 310 2.0 4.0 0.00 0.07 0.07 77 1015.6
20260506144803 60 310 2.0 4.0 0.00 0.07 0.07 77 1015.6
20260506144703 60 325 3.0 6.0 0.00 0.07 0.07 76 1015.7
20260506144624 60 333 3.0 6.0 0.00 0.07 0.07 76 1015.6
20260506144524 60 343 3.0 6.0 0.00 0.07 0.07 76 1015.6
20260506144403 60 355 3.0 6.0 0.00 0.07 0.07 76 1015.6
20260506144303 60 3 3.0 6.0 0.00 0.07 0.07 76 1015.5
20260506144203 60 5 3.0 6.0 0.00 0.07 0.07 77 1015.5
20260506144103 60 9 3.0 6.0 0.00 0.07 0.07 77 1015.7
20260506144003 60 9 3.0 6.0 0.00 0.07 0.07 78 1015.5
20260506143924 59 9 3.0 6.0 0.00 0.07 0.07 77 1015.6
20260506143803 59 10 3.0 6.0 0.00 0.07 0.07 77 1015.5
20260506143703 60 8 3.0 6.0 0.00 0.07 0.07 77 1015.6
20260506143603 60 7 3.0 6.0 0.00 0.07 0.07 78 1015.6
20260506143503 60 6 3.0 6.0 0.00 0.07 0.07 78 1015.5
20260506143403 60 4 3.0 6.0 0.00 0.07 0.07 78 1015.6
20260506143303 60 3 3.0 4.0 0.00 0.07 0.07 79 1015.7
20260506143224 60 3 3.0 4.0 0.00 0.07 0.07 79 1015.7
20260506143124 60 359 3.0 7.0 0.00 0.07 0.07 77 1015.8
20260506143003 61 359 3.0 7.0 0.00 0.07 0.07 78 1015.6
20260506142903 61 357 3.0 7.0 0.00 0.07 0.07 77 1015.7
20260506142803 61 356 4.0 7.0 0.00 0.07 0.07 78 1015.7
20260506142703 61 356 4.0 7.0 0.00 0.07 0.07 78 1015.7
20260506142603 60 359 4.0 7.0 0.00 0.07 0.07 78 1015.4
20260506142503 60 360 4.0 7.0 0.00 0.07 0.07 77 1015.5
20260506142403 60 360 4.0 7.0 0.00 0.07 0.07 77 1015.5
20260506142305 60 359 4.0 7.0 0.00 0.07 0.07 78 1015.7
20260506142204 60 359 4.0 7.0 0.00 0.07 0.07 77 1015.6
20260506142103 60 1 4.0 7.0 0.00 0.07 0.07 78 1015.7
20260506142024 59 1 4.0 7.0 0.00 0.07 0.07 78 1015.6
20260506141903 59 360 4.0 7.0 0.00 0.07 0.07 78 1015.6
20260506141803 59 1 4.0 7.0 0.00 0.07 0.07 78 1015.5
20260506141724 59 2 4.0 7.0 0.00 0.07 0.07 78 1015.5
20260506141603 59 360 4.0 7.0 0.00 0.07 0.07 77 1015.8
20260506141503 59 359 3.0 7.0 0.00 0.07 0.07 77 1015.6
20260506141403 59 2 4.0 9.0 0.00 0.07 0.07 77 1015.7
20260506141303 59 2 4.0 9.0 0.00 0.07 0.07 77 1015.7
20260506141203 59 2 4.0 9.0 0.00 0.07 0.07 77 1015.7
20260506141103 59 2 4.0 9.0 0.00 0.07 0.07 77 1015.7
20260506141024 59 357 4.0 11.0 0.00 0.07 0.07 77 1015.6
20260506140903 59 353 4.0 11.0 0.00 0.07 0.07 77 1015.6
20260506140803 59 353 4.0 11.0 0.00 0.07 0.07 76 1015.9
20260506140703 59 350 4.0 11.0 0.00 0.07 0.07 77 1015.7
20260506140603 60 350 4.0 11.0 0.00 0.07 0.07 77 1015.7
20260506140503 60 345 4.0 11.0 0.00 0.07 0.07 77 1015.8
20260506140403 60 338 4.0 11.0 0.00 0.07 0.07 77 1015.7
20260506140303 60 328 3.0 11.0 0.00 0.07 0.07 77 1015.6
20260506140203 60 330 4.0 11.0 0.00 0.07 0.07 77 1015.7
20260506140024 60 330 4.0 11.0 0.00 0.07 0.07 76 1015.7
20260506135903 61 332 3.0 6.0 0.00 0.07 0.07 76 1015.8
20260506135803 61 332 3.0 6.0 0.00 0.07 0.07 77 1015.8
20260506135703 61 331 3.0 6.0 0.00 0.07 0.07 76 1015.7
20260506135603 61 328 3.0 6.0 0.00 0.07 0.07 76 1015.6
20260506135503 61 328 3.0 6.0 0.00 0.07 0.07 76 1015.6
20260506135403 61 339 3.0 6.0 0.00 0.07 0.07 75 1015.8
20260506135306 61 350 3.0 6.0 0.00 0.07 0.07 77 1015.9
20260506135203 61 349 3.0 7.0 0.00 0.07 0.07 77 1015.8
20260506135103 61 348 3.0 7.0 0.00 0.07 0.07 78 1015.9
20260506135003 60 347 3.0 7.0 0.00 0.07 0.07 79 1015.9
20260506134903 60 348 3.0 7.0 0.00 0.07 0.07 79 1015.8
20260506134803 60 343 3.0 7.0 0.00 0.07 0.07 79 1016.0
20260506134703 59 337 3.0 7.0 0.00 0.07 0.07 79 1015.8
20260506134624 59 336 3.0 7.0 0.00 0.07 0.07 78 1015.8
20260506134503 60 336 2.0 7.0 0.00 0.07 0.07 78 1015.9
20260506134403 60 333 2.0 7.0 0.00 0.07 0.07 78 1015.8
20260506134303 60 334 2.0 7.0 0.00 0.07 0.07 78 1015.8
20260506134204 60 339 2.0 4.0 0.00 0.07 0.07 78 1015.8
20260506134103 60 341 2.0 4.0 0.00 0.07 0.07 78 1015.8
20260506134025 60 341 2.0 4.0 0.00 0.07 0.07 78 1015.8
20260506133903 60 347 2.0 4.0 0.00 0.07 0.07 78 1015.8
20260506133803 60 351 2.0 4.0 0.00 0.07 0.07 78 1016.0
20260506133724 60 351 2.0 4.0 0.00 0.07 0.07 78 1016.0
20260506133603 60 355 2.0 4.0 0.00 0.07 0.07 78 1016.0
20260506133503 59 359 2.0 4.0 0.00 0.07 0.07 78 1015.9
20260506133403 59 1 2.0 4.0 0.00 0.07 0.07 77 1015.8
20260506133303 60 1 2.0 4.0 0.00 0.07 0.07 77 1015.9
20260506133203 60 360 2.0 4.0 0.00 0.07 0.07 77 1015.8
20260506133103 60 1 2.0 6.0 0.00 0.07 0.07 77 1015.8
20260506133003 60 360 2.0 6.0 0.00 0.07 0.07 77 1015.8
20260506132903 60 2 2.0 6.0 0.00 0.07 0.07 76 1015.9
20260506132803 60 2 2.0 6.0 0.00 0.07 0.07 76 1015.9
20260506132703 60 5 2.0 6.0 0.00 0.07 0.07 76 1015.8
20260506132624 60 5 2.0 6.0 0.00 0.07 0.07 76 1015.9
20260506132503 60 6 2.0 6.0 0.00 0.07 0.07 76 1015.9
20260506132403 60 359 2.0 6.0 0.00 0.07 0.07 76 1015.9
20260506132306 60 347 2.0 6.0 0.00 0.07 0.07 76 1015.8
20260506132203 60 348 2.0 6.0 0.00 0.07 0.07 76 1016.0
20260506132103 60 345 2.0 6.0 0.00 0.07 0.07 78 1015.9
20260506132003 60 345 2.0 6.0 0.00 0.07 0.07 79 1015.9
20260506131903 60 343 2.0 6.0 0.00 0.07 0.07 79 1015.9
20260506131803 60 345 3.0 6.0 0.00 0.07 0.07 78 1015.8
20260506131724 60 345 3.0 6.0 0.00 0.07 0.07 78 1015.8
20260506131603 60 343 3.0 7.0 0.00 0.07 0.07 79 1015.8
20260506131503 60 343 3.0 7.0 0.00 0.07 0.07 79 1015.8
20260506131403 60 342 3.0 7.0 0.00 0.07 0.07 79 1015.9
20260506131303 60 349 3.0 7.0 0.00 0.07 0.07 79 1016.0
20260506131203 60 354 3.0 7.0 0.00 0.07 0.07 79 1015.8
20260506131103 59 355 3.0 7.0 0.00 0.07 0.07 79 1015.9
20260506131003 59 358 4.0 7.0 0.00 0.07 0.07 78 1016.0
20260506130903 59 358 4.0 7.0 0.00 0.07 0.07 78 1015.9
20260506130824 59 360 4.0 7.0 0.00 0.07 0.07 78 1015.9
20260506130703 59 359 3.0 7.0 0.00 0.07 0.07 79 1015.9
20260506130603 60 360 3.0 7.0 0.00 0.07 0.07 78 1015.9
20260506130503 60 3 3.0 7.0 0.00 0.07 0.07 78 1016.0
20260506130403 60 3 3.0 7.0 0.00 0.07 0.07 78 1015.8
20260506130303 60 360 3.0 7.0 0.00 0.07 0.07 78 1015.9
20260506130204 60 5 3.0 7.0 0.00 0.07 0.07 78 1015.9
20260506130103 60 3 2.0 7.0 0.00 0.07 0.07 77 1015.9
20260506130003 60 2 2.0 4.0 0.00 0.07 0.07 77 1015.9
20260506125903 60 2 2.0 4.0 0.00 0.07 0.07 77 1015.9
20260506125824 60 2 2.0 4.0 0.00 0.07 0.07 77 1015.9
20260506125703 60 3 2.0 4.0 0.00 0.07 0.07 77 1016.0
20260506125603 60 2 2.0 4.0 0.00 0.07 0.07 76 1015.8
20260506125524 60 2 2.0 4.0 0.00 0.07 0.07 76 1015.8
20260506125403 60 3 2.0 4.0 0.00 0.07 0.07 76 1016.0
20260506125305 60 2 2.0 4.0 0.00 0.07 0.07 76 1016.1
20260506125203 60 6 2.0 7.0 0.00 0.07 0.07 76 1016.0
20260506125103 60 4 2.0 7.0 0.00 0.07 0.07 75 1016.0
20260506125003 60 4 2.0 7.0 0.00 0.07 0.07 75 1016.0
20260506124903 60 5 3.0 7.0 0.00 0.07 0.07 76 1015.9
20260506124803 60 3 3.0 7.0 0.00 0.07 0.07 76 1016.1
20260506124703 60 358 2.0 7.0 0.00 0.07 0.07 78 1016.0
20260506124603 60 358 3.0 7.0 0.00 0.07 0.07 77 1016.1
20260506124503 60 358 3.0 7.0 0.00 0.07 0.07 76 1016.1
20260506124403 60 357 2.0 7.0 0.00 0.07 0.07 77 1015.9
20260506124303 60 357 2.0 7.0 0.00 0.07 0.07 77 1015.9
20260506124203 60 353 2.0 7.0 0.00 0.07 0.07 75 1016.1
20260506124103 60 348 2.0 7.0 0.00 0.07 0.07 75 1016.0
20260506124002 60 348 2.0 6.0 0.00 0.07 0.07 75 1016.1
20260506123902 60 347 2.0 6.0 0.00 0.07 0.07 75 1016.1
20260506123802 61 338 2.0 3.0 0.00 0.07 0.07 75 1015.9
20260506123702 61 344 2.0 4.0 0.00 0.07 0.07 75 1016.2
20260506123603 61 354 2.0 7.0 0.00 0.07 0.07 75 1016.1
20260506123502 61 355 2.0 7.0 0.00 0.07 0.07 75 1016.0
20260506123424 60 355 2.0 7.0 0.00 0.07 0.07 74 1016.2
20260506123302 61 355 3.0 7.0 0.00 0.07 0.07 74 1016.2
20260506123224 61 355 3.0 7.0 0.00 0.07 0.07 74 1016.2
20260506123102 61 5 3.0 7.0 0.00 0.07 0.07 73 1016.2
20260506123002 61 2 3.0 7.0 0.00 0.07 0.07 74 1016.0
20260506122902 61 2 3.0 7.0 0.00 0.07 0.07 73 1016.1
20260506122823 61 2 3.0 7.0 0.00 0.07 0.07 73 1016.1
20260506122702 61 5 3.0 7.0 0.00 0.07 0.07 74 1016.0
20260506122602 61 5 3.0 7.0 0.00 0.07 0.07 72 1016.1
20260506122502 60 4 3.0 6.0 0.00 0.07 0.07 72 1016.2
20260506122402 60 4 3.0 6.0 0.00 0.07 0.07 72 1016.1
20260506122305 60 4 3.0 6.0 0.00 0.07 0.07 72 1016.3
20260506122203 60 2 3.0 6.0 0.00 0.07 0.07 73 1016.2
20260506122103 61 360 3.0 6.0 0.00 0.07 0.07 73 1016.2
20260506122002 61 359 2.0 6.0 0.00 0.07 0.07 73 1016.0
20260506121903 61 5 2.0 6.0 0.00 0.07 0.07 73 1016.1
20260506121802 62 5 2.0 6.0 0.00 0.07 0.07 75 1016.2
20260506121702 62 5 2.0 6.0 0.00 0.07 0.07 76 1016.1
20260506121603 62 6 2.0 4.0 0.00 0.07 0.07 75 1016.3
20260506121503 62 1 2.0 4.0 0.00 0.07 0.07 76 1016.2
20260506121403 62 359 2.0 4.0 0.00 0.07 0.07 75 1016.2
20260506121302 62 359 2.0 4.0 0.00 0.07 0.07 75 1016.3
20260506121203 62 358 2.0 6.0 0.00 0.07 0.07 74 1016.3
20260506121103 62 359 2.0 6.0 0.00 0.07 0.07 76 1016.1
20260506121002 62 358 2.0 6.0 0.00 0.07 0.07 76 1016.3
20260506120902 61 356 2.0 6.0 0.00 0.07 0.07 76 1016.3
20260506120802 61 354 3.0 6.0 0.00 0.07 0.07 75 1016.3
20260506120703 61 354 3.0 6.0 0.00 0.07 0.07 75 1016.3
20260506120602 61 355 3.0 6.0 0.00 0.07 0.07 75 1016.3
20260506120502 61 350 3.0 6.0 0.00 0.07 0.07 76 1016.2
20260506120424 61 352 3.0 6.0 0.00 0.07 0.07 75 1016.3
20260506120303 61 352 3.0 6.0 0.00 0.07 0.07 76 1016.4
20260506120202 61 348 3.0 6.0 0.00 0.07 0.07 74 1016.5
20260506120003 60 346 3.0 6.0 0.00 0.07 0.07 77 1016.4
20260506115903 60 347 3.0 8.0 0.00 0.07 0.07 75 1016.4
20260506115802 60 348 3.0 8.0 0.00 0.07 0.07 75 1016.3
20260506115703 60 350 3.0 8.0 0.00 0.07 0.07 76 1016.4
20260506115623 60 350 3.0 8.0 0.00 0.07 0.07 75 1016.3
20260506115503 60 354 3.0 8.0 0.00 0.07 0.07 76 1016.4
20260506115403 60 353 3.0 8.0 0.00 0.07 0.07 78 1016.3
20260506115306 60 355 3.0 8.0 0.00 0.07 0.07 78 1016.4
20260506115224 60 355 3.0 8.0 0.00 0.07 0.07 78 1016.4
20260506115102 60 358 4.0 8.0 0.00 0.07 0.07 77 1016.2
20260506115003 60 360 4.0 8.0 0.00 0.07 0.07 77 1016.4
20260506114903 60 2 3.0 8.0 0.00 0.07 0.07 78 1016.3
20260506114802 60 4 3.0 4.0 0.00 0.07 0.07 79 1016.4
20260506114724 60 4 3.0 4.0 0.00 0.07 0.07 79 1016.4
20260506114623 60 3 3.0 4.0 0.00 0.07 0.07 79 1016.4
20260506114503 60 3 3.0 4.0 0.00 0.07 0.07 79 1016.3
20260506114402 60 360 3.0 6.0 0.00 0.07 0.07 80 1016.5
20260506114302 60 2 3.0 6.0 0.00 0.07 0.07 80 1016.4
20260506114203 60 4 3.0 6.0 0.00 0.07 0.07 80 1016.4
20260506114103 60 4 3.0 6.0 0.00 0.07 0.07 80 1016.3
20260506114002 60 3 3.0 6.0 0.00 0.07 0.07 81 1016.5
20260506113902 60 3 3.0 6.0 0.00 0.07 0.07 81 1016.5
20260506113803 60 2 3.0 6.0 0.00 0.07 0.07 80 1016.3
20260506113703 60 2 3.0 6.0 0.00 0.07 0.07 80 1016.3
20260506113602 60 1 2.0 6.0 0.00 0.07 0.07 80 1016.5
20260506113502 60 1 2.0 6.0 0.00 0.07 0.07 80 1016.5
20260506113423 60 5 2.0 6.0 0.00 0.07 0.07 81 1016.5
20260506113302 60 8 2.0 4.0 0.00 0.07 0.07 81 1016.4
20260506113202 60 7 2.0 4.0 0.00 0.07 0.07 83 1016.5
20260506113124 60 3 2.0 4.0 0.00 0.07 0.07 82 1016.5
20260506113002 60 2 3.0 4.0 0.00 0.07 0.07 82 1016.5
20260506112903 59 4 3.0 4.0 0.00 0.07 0.07 82 1016.7
20260506112803 59 3 3.0 4.0 0.00 0.07 0.07 81 1016.7
20260506112702 59 4 3.0 7.0 0.00 0.07 0.07 81 1016.7
20260506112602 60 5 3.0 7.0 0.00 0.07 0.07 82 1016.8
20260506112503 59 6 3.0 7.0 0.00 0.07 0.07 82 1016.6
20260506112403 59 4 3.0 7.0 0.00 0.07 0.07 82 1016.6
20260506112305 59 4 3.0 7.0 0.00 0.07 0.07 82 1016.6
20260506112202 59 5 3.0 7.0 0.00 0.07 0.07 82 1016.7
20260506112103 59 7 3.0 7.0 0.00 0.07 0.07 82 1016.6
20260506112003 59 7 3.0 7.0 0.00 0.07 0.07 82 1016.6
20260506111923 59 7 3.0 7.0 0.00 0.07 0.07 82 1016.5
20260506111803 59 5 3.0 7.0 0.00 0.07 0.07 81 1016.6
20260506111703 59 5 3.0 7.0 0.00 0.07 0.07 81 1016.7
20260506111603 60 5 3.0 6.0 0.00 0.07 0.07 82 1016.7
20260506111503 60 358 3.0 6.0 0.00 0.07 0.07 82 1016.5
20260506111403 59 359 3.0 6.0 0.00 0.07 0.07 84 1016.4
20260506111302 59 1 3.0 6.0 0.00 0.07 0.07 83 1016.6
20260506111224 59 357 3.0 6.0 0.00 0.07 0.07 83 1016.6
20260506111103 59 356 4.0 8.0 0.00 0.07 0.07 84 1016.7
20260506111003 59 356 3.0 8.0 0.00 0.07 0.07 83 1016.7
20260506110903 60 358 3.0 8.0 0.00 0.07 0.07 83 1016.7
20260506110803 60 359 3.0 8.0 0.00 0.07 0.07 84 1016.7
20260506110703 59 358 3.0 8.0 0.00 0.07 0.07 84 1016.6
20260506110602 59 357 4.0 8.0 0.00 0.07 0.07 84 1016.5
20260506110503 59 360 4.0 8.0 0.00 0.07 0.07 83 1016.6
20260506110423 59 360 4.0 8.0 0.00 0.07 0.07 83 1016.6
20260506110324 59 1 3.0 8.0 0.00 0.07 0.07 83 1016.7
20260506110223 59 360 3.0 8.0 0.00 0.07 0.07 83 1016.9
20260506110003 58 11 3.0 6.0 0.00 0.07 0.07 84 1016.5
20260506105903 58 11 3.0 6.0 0.00 0.07 0.07 84 1016.5
20260506105824 58 10 3.0 6.0 0.00 0.07 0.07 84 1016.6
20260506105703 58 7 3.0 6.0 0.00 0.07 0.07 84 1016.6
20260506105602 58 9 3.0 6.0 0.00 0.07 0.07 85 1016.6
20260506105503 58 9 3.0 6.0 0.00 0.07 0.07 86 1016.8
20260506105403 58 8 3.0 6.0 0.00 0.07 0.07 86 1016.5
20260506105305 57 6 3.0 6.0 0.00 0.07 0.07 86 1016.6
20260506105202 57 6 3.0 6.0 0.00 0.07 0.07 85 1016.6
20260506105103 57 3 3.0 6.0 0.00 0.07 0.07 85 1016.7
20260506105003 57 2 3.0 6.0 0.00 0.07 0.07 86 1016.7
20260506104903 57 1 3.0 6.0 0.00 0.07 0.07 86 1016.6
20260506104824 57 1 3.0 6.0 0.00 0.07 0.07 87 1016.6
20260506104724 57 1 3.0 6.0 0.00 0.07 0.07 87 1016.6
20260506104603 57 4 3.0 6.0 0.00 0.07 0.07 87 1016.6
20260506104503 57 5 3.0 4.0 0.00 0.07 0.07 87 1016.7
20260506104424 57 5 3.0 4.0 0.00 0.07 0.07 87 1016.7
20260506104302 57 8 3.0 4.0 0.00 0.07 0.07 87 1016.7
20260506104203 57 9 3.0 4.0 0.00 0.07 0.07 87 1016.6
20260506104102 57 9 3.0 4.0 0.00 0.07 0.07 87 1016.7
20260506104003 57 9 3.0 4.0 0.00 0.07 0.07 87 1016.7
20260506103903 57 10 2.0 4.0 0.00 0.07 0.07 87 1016.7
20260506103824 57 10 2.0 4.0 0.00 0.07 0.07 87 1016.7
20260506103703 57 9 3.0 4.0 0.00 0.07 0.07 87 1016.7
20260506103603 57 9 3.0 4.0 0.00 0.07 0.07 87 1016.7
20260506103503 57 9 3.0 4.0 0.00 0.07 0.07 87 1016.7
20260506103403 57 11 2.0 4.0 0.00 0.07 0.07 87 1016.8
20260506103302 57 11 2.0 4.0 0.00 0.07 0.07 87 1016.7
20260506103203 57 11 2.0 4.0 0.00 0.07 0.07 87 1016.8
20260506103103 57 11 2.0 4.0 0.00 0.07 0.07 87 1016.8
20260506103003 57 12 2.0 4.0 0.00 0.07 0.07 87 1016.7
20260506102903 57 13 2.0 4.0 0.00 0.07 0.07 87 1016.7
20260506102802 57 14 2.0 4.0 0.00 0.07 0.07 87 1016.8
20260506102703 57 14 2.0 4.0 0.00 0.07 0.07 87 1016.8
20260506102603 57 16 2.0 4.0 0.00 0.07 0.07 87 1016.8
20260506102503 57 16 2.0 4.0 0.00 0.07 0.07 87 1016.7
20260506102403 57 16 2.0 4.0 0.00 0.07 0.07 87 1016.6
20260506102324 57 15 2.0 4.0 0.00 0.07 0.07 87 1016.6
20260506102203 57 16 2.0 4.0 0.00 0.07 0.07 86 1016.6
20260506102103 57 16 2.0 4.0 0.00 0.07 0.07 86 1016.6
20260506102003 57 13 2.0 4.0 0.00 0.08 0.07 86 1016.6
20260506101924 57 12 2.0 4.0 0.00 0.08 0.07 86 1016.7
20260506101824 57 12 2.0 4.0 0.00 0.09 0.07 85 1016.5
20260506101702 57 11 2.0 4.0 0.00 0.09 0.07 85 1016.6
20260506101603 57 9 2.0 3.0 0.00 0.10 0.07 85 1016.6
20260506101503 57 9 2.0 3.0 0.00 0.10 0.07 85 1016.6
20260506101403 57 8 2.0 3.0 0.00 0.10 0.07 85 1016.5
20260506101303 57 8 2.0 3.0 0.00 0.10 0.07 84 1016.8
20260506101203 57 10 2.0 3.0 0.00 0.10 0.07 84 1016.5
20260506101124 57 10 2.0 3.0 0.00 0.10 0.07 84 1016.5
20260506101003 57 27 2.0 3.0 0.00 0.10 0.07 83 1016.6
20260506100903 57 36 2.0 3.0 0.00 0.10 0.07 83 1016.6
20260506100803 57 40 2.0 3.0 0.00 0.10 0.07 82 1016.5
20260506100702 57 40 2.0 3.0 0.00 0.10 0.07 82 1016.5
20260506100603 57 45 2.0 3.0 0.00 0.10 0.07 82 1016.5
20260506100502 57 51 2.0 3.0 0.00 0.10 0.07 82 1016.5
20260506100424 57 61 1.0 3.0 0.00 0.10 0.07 81 1016.5
20260506100324 58 76 1.0 3.0 0.00 0.10 0.07 81 1016.6
20260506100203 58 90 1.0 3.0 0.00 0.10 0.07 81 1016.5
20260506100003 59 90 1.0 2.0 0.00 0.10 0.07 81 1016.6
20260506095924 59 90 1.0 2.0 0.00 0.10 0.07 81 1016.5
20260506095803 60 90 1.0 2.0 0.00 0.10 0.07 80 1016.4
20260506095703 60 90 1.0 2.0 0.00 0.10 0.07 80 1016.6
20260506095603 60 90 1.0 2.0 0.00 0.10 0.07 80 1016.5
20260506095524 60 90 1.0 2.0 0.00 0.10 0.07 80 1016.6
20260506095403 60 90 1.0 2.0 0.00 0.10 0.07 80 1016.5
20260506095305 60 90 1.0 2.0 0.00 0.10 0.07 80 1016.6
20260506095203 60 90 1.0 2.0 0.00 0.10 0.07 79 1016.4
20260506095124 60 90 1.0 2.0 0.00 0.10 0.07 79 1016.4
20260506095003 60 90 0.0 1.0 0.00 0.10 0.07 78 1016.3
20260506094902 60 90 0.0 1.0 0.00 0.10 0.07 78 1016.7
20260506094803 60 90 0.0 1.0 0.00 0.10 0.07 78 1016.8
20260506094703 60 90 0.0 1.0 0.00 0.10 0.07 80 1016.6
20260506094602 61 90 0.0 1.0 0.00 0.10 0.07 81 1016.8
20260506094503 61 90 0.0 1.0 0.00 0.10 0.07 81 1016.7
20260506094403 61 90 0.0 1.0 0.00 0.10 0.07 81 1016.6
20260506094303 61 90 0.0 1.0 0.00 0.10 0.07 81 1016.6
20260506094224 61 90 0.0 2.0 0.00 0.10 0.07 82 1016.4
20260506094103 60 90 1.0 2.0 0.00 0.10 0.07 83 1016.6
20260506094024 60 90 1.0 2.0 0.00 0.10 0.07 83 1016.8
20260506093903 60 90 1.0 2.0 0.00 0.10 0.07 83 1016.6
20260506093803 59 90 1.0 2.0 0.00 0.10 0.07 83 1016.7
20260506093724 59 90 1.0 2.0 0.00 0.10 0.07 82 1016.7
20260506093603 59 90 1.0 2.0 0.00 0.10 0.07 81 1016.5
20260506093502 59 90 1.0 2.0 0.00 0.10 0.07 81 1016.6
20260506093402 60 90 1.0 2.0 0.00 0.10 0.07 81 1016.6
20260506093303 61 90 1.0 2.0 0.00 0.10 0.07 81 1016.5
20260506093203 61 90 1.0 2.0 0.00 0.10 0.07 82 1016.6
20260506093124 61 90 1.0 2.0 0.00 0.10 0.07 82 1016.6
20260506093003 61 90 1.0 2.0 0.00 0.10 0.07 84 1016.6
20260506092903 60 90 1.0 2.0 0.00 0.10 0.07 83 1016.5
20260506092803 60 90 1.0 2.0 0.00 0.10 0.07 82 1016.6
20260506092703 60 90 1.0 2.0 0.00 0.10 0.07 82 1016.6
20260506092602 60 90 1.0 2.0 0.00 0.10 0.07 82 1016.8
20260506092503 60 90 1.0 2.0 0.00 0.10 0.07 82 1016.4
20260506092403 60 90 1.0 2.0 0.00 0.10 0.07 83 1016.6
20260506092324 61 90 1.0 2.0 0.00 0.10 0.07 83 1016.6
20260506092203 61 90 1.0 2.0 0.00 0.11 0.07 85 1016.5
20260506092103 61 90 1.0 2.0 0.00 0.11 0.07 86 1016.5
20260506092003 61 86 1.0 2.0 0.00 0.12 0.07 87 1016.7
20260506091903 60 86 1.0 3.0 0.00 0.12 0.07 87 1016.5
20260506091824 59 83 1.0 3.0 0.00 0.12 0.07 88 1016.4
20260506091703 59 80 1.0 3.0 0.00 0.12 0.07 88 1016.5
20260506091624 58 76 1.0 3.0 0.00 0.12 0.07 88 1016.6
20260506091524 58 76 1.0 3.0 0.00 0.12 0.07 88 1016.6
20260506091403 58 63 1.0 3.0 0.00 0.12 0.07 91 1016.5
20260506091303 57 58 1.0 3.0 0.00 0.13 0.07 92 1016.5
20260506091202 57 58 1.0 3.0 0.00 0.13 0.07 92 1016.5
20260506091103 57 58 1.0 3.0 0.00 0.13 0.07 92 1016.5
20260506091003 57 56 1.0 3.0 0.00 0.13 0.07 93 1016.6
20260506090903 57 55 1.0 3.0 0.00 0.14 0.07 94 1016.4
20260506090803 57 46 1.0 2.0 0.00 0.15 0.07 96 1016.5
20260506090703 56 46 1.0 2.0 0.00 0.15 0.07 96 1016.5
20260506090603 56 47 1.0 2.0 0.00 0.16 0.07 96 1016.5
20260506090503 57 48 1.0 2.0 0.00 0.16 0.07 97 1016.6
20260506090403 57 50 1.0 2.0 0.00 0.16 0.07 97 1016.6
20260506090303 57 51 1.0 2.0 0.00 0.16 0.07 98 1016.5
20260506090203 56 50 1.0 2.0 0.00 0.16 0.07 98 1016.5
20260506090003 55 49 1.0 2.0 0.00 0.16 0.07 98 1016.5
20260506085903 55 47 1.0 2.0 0.00 0.16 0.07 98 1016.6
20260506085824 55 47 1.0 2.0 0.00 0.16 0.07 98 1016.6
20260506085703 55 52 1.0 2.0 0.00 0.16 0.07 98 1016.5
20260506085603 55 48 1.0 2.0 0.00 0.16 0.07 99 1016.8
20260506085503 55 48 1.0 2.0 0.00 0.16 0.07 99 1016.8
20260506085403 56 48 1.0 2.0 0.00 0.16 0.07 98 1016.7
20260506085305 56 47 1.0 2.0 0.00 0.16 0.07 99 1016.8
20260506085203 56 42 1.0 2.0 0.00 0.16 0.07 99 1016.5
20260506085124 56 42 1.0 2.0 0.00 0.16 0.07 99 1016.6
20260506085003 56 39 1.0 2.0 0.00 0.16 0.07 99 1016.6
20260506084903 56 38 1.0 2.0 0.00 0.16 0.07 99 1016.6
20260506084824 56 37 1.0 2.0 0.00 0.16 0.07 99 1016.5
20260506084703 56 34 1.0 2.0 0.00 0.16 0.07 99 1016.7
20260506084603 56 28 1.0 2.0 0.00 0.16 0.07 99 1016.6
20260506084524 55 32 1.0 2.0 0.00 0.16 0.07 99 1016.7
20260506084403 55 32 1.0 2.0 0.00 0.16 0.07 99 1016.6
20260506084303 55 32 1.0 2.0 0.00 0.16 0.07 99 1016.6
20260506084203 55 38 1.0 2.0 0.00 0.16 0.07 99 1016.7
20260506084103 55 40 1.0 2.0 0.00 0.16 0.07 99 1016.6
20260506084024 55 40 1.0 2.0 0.00 0.16 0.07 99 1016.6
20260506083903 55 51 1.0 2.0 0.00 0.16 0.07 99 1016.5
20260506083824 55 51 1.0 2.0 0.00 0.16 0.07 99 1016.5
20260506083703 55 52 1.0 2.0 0.00 0.16 0.07 99 1016.7
20260506083603 55 53 1.0 2.0 0.00 0.16 0.07 99 1016.5
20260506083503 55 53 1.0 2.0 0.00 0.16 0.07 99 1016.5
20260506083403 55 55 1.0 2.0 0.00 0.16 0.07 99 1016.6
20260506083303 56 55 1.0 2.0 0.00 0.16 0.07 99 1016.4
20260506083224 56 56 1.0 2.0 0.00 0.16 0.07 99 1016.6
20260506083103 56 59 1.0 2.0 0.00 0.16 0.07 99 1016.5
20260506083003 56 61 1.0 2.0 0.00 0.16 0.07 99 1016.6
20260506082903 56 60 1.0 2.0 0.00 0.16 0.07 99 1016.7
20260506082803 55 49 1.0 2.0 0.00 0.16 0.07 99 1016.6
20260506082703 55 48 1.0 2.0 0.00 0.16 0.07 99 1016.7
20260506082603 54 48 1.0 2.0 0.00 0.16 0.07 99 1016.7
20260506082503 54 49 1.0 2.0 0.00 0.16 0.07 99 1016.6
20260506082403 54 48 1.0 2.0 0.00 0.16 0.07 99 1016.7
20260506082305 54 47 1.0 2.0 0.00 0.16 0.07 99 1016.8
20260506082203 54 47 1.0 2.0 0.00 0.16 0.07 99 1016.6
20260506082103 54 45 1.0 2.0 0.00 0.16 0.07 99 1016.6
20260506082003 53 45 1.0 2.0 0.00 0.16 0.07 99 1016.4
20260506081903 53 45 1.0 2.0 0.00 0.16 0.07 99 1016.4
20260506081824 53 45 1.0 2.0 0.00 0.16 0.07 99 1016.6
20260506081703 53 45 1.0 2.0 0.00 0.16 0.07 99 1016.6
20260506081624 53 47 1.0 2.0 0.00 0.16 0.07 99 1016.8
20260506081503 53 46 1.0 2.0 0.00 0.16 0.07 99 1016.7
20260506081403 53 45 1.0 2.0 0.00 0.16 0.07 99 1016.7
20260506081302 53 45 1.0 2.0 0.00 0.16 0.07 99 1016.7
20260506081224 53 44 1.0 2.0 0.00 0.16 0.07 99 1016.7
20260506081103 52 44 1.0 2.0 0.00 0.16 0.07 99 1016.7
20260506081003 52 45 1.0 2.0 0.00 0.16 0.07 99 1016.6
20260506080903 52 46 1.0 2.0 0.00 0.16 0.07 99 1016.6
20260506080803 52 47 1.0 2.0 0.00 0.16 0.07 99 1016.6
20260506080703 52 47 1.0 2.0 0.00 0.16 0.07 99 1016.7
20260506080603 52 46 1.0 2.0 0.00 0.16 0.07 99 1016.7
20260506080503 52 46 1.0 2.0 0.00 0.16 0.07 99 1016.8
20260506080403 52 46 1.0 2.0 0.00 0.16 0.07 99 1016.6
20260506080324 52 46 1.0 2.0 0.00 0.16 0.07 99 1016.6
20260506080203 52 47 1.0 2.0 0.00 0.16 0.07 99 1016.6
20260506073503 51 44 1.0 2.0 0.00 0.16 0.07 99 1016.8
20260506073424 51 44 1.0 2.0 0.00 0.17 0.07 99 1016.8
20260506073324 51 44 1.0 2.0 0.00 0.17 0.07 99 1016.7
20260506073203 51 42 1.0 2.0 0.00 0.17 0.07 99 1016.7
20260506073103 51 42 1.0 2.0 0.00 0.17 0.07 99 1016.7
20260506073003 51 42 1.0 2.0 0.00 0.17 0.07 99 1016.7
20260506072903 51 43 1.0 2.0 0.00 0.17 0.07 99 1016.6
20260506072803 51 43 1.0 2.0 0.00 0.17 0.07 99 1016.5
20260506072703 51 40 0.0 1.0 0.00 0.17 0.07 99 1016.6
20260506072603 51 41 0.0 1.0 0.00 0.17 0.07 99 1016.6
20260506072503 51 41 0.0 1.0 0.00 0.17 0.07 99 1016.6
20260506072403 51 41 0.0 1.0 0.00 0.17 0.07 99 1016.6
20260506072305 51 41 0.0 1.0 0.00 0.17 0.07 99 1016.6
20260506072224 51 41 0.0 1.0 0.00 0.18 0.07 99 1016.5
20260506072103 51 41 0.0 1.0 0.00 0.18 0.07 99 1016.7
20260506072003 51 53 0.0 3.0 0.00 0.18 0.07 99 1016.6
20260506071924 51 53 0.0 3.0 0.00 0.18 0.07 99 1016.6
20260506071803 51 51 0.0 3.0 0.00 0.18 0.07 99 1016.6
20260506071703 51 51 1.0 3.0 0.00 0.18 0.07 99 1016.6
20260506071624 51 51 1.0 3.0 0.00 0.18 0.07 99 1016.6
20260506071503 51 51 1.0 3.0 0.00 0.18 0.07 99 1016.6
20260506071403 51 51 1.0 3.0 0.00 0.18 0.07 99 1016.6
20260506071303 51 51 1.0 3.0 0.00 0.18 0.07 99 1016.6
20260506071224 51 51 1.0 3.0 0.00 0.18 0.07 99 1016.6
20260506071103 51 51 1.0 3.0 0.00 0.18 0.07 99 1016.5
20260506071024 51 51 1.0 3.0 0.00 0.19 0.07 99 1016.7
20260506070903 51 42 1.0 2.0 0.00 0.19 0.07 99 1016.5
20260506070803 51 42 1.0 2.0 0.00 0.19 0.07 99 1016.6
20260506070703 51 42 1.0 2.0 0.00 0.20 0.07 99 1016.6
20260506070603 51 43 1.0 2.0 0.00 0.20 0.07 99 1016.5
20260506070503 51 42 1.0 1.0 0.00 0.21 0.07 99 1016.5
20260506070403 51 41 0.0 1.0 0.00 0.21 0.07 99 1016.5
20260506070303 51 40 0.0 1.0 0.00 0.21 0.07 99 1016.7
20260506070203 51 40 0.0 1.0 0.00 0.21 0.07 99 1016.4
20260506070103 51 40 0.0 1.0 0.00 0.21 0.07 99 1016.5
20260506062503 50 39 0.0 1.0 0.00 0.26 0.07 99 1016.5
20260506062403 50 39 0.0 1.0 0.00 0.27 0.07 99 1016.4
20260506062324 50 39 0.0 1.0 0.00 0.27 0.07 99 1016.4
20260506062224 50 39 0.0 1.0 0.00 0.27 0.07 99 1016.4
20260506062103 50 39 0.0 1.0 0.00 0.28 0.07 99 1016.3
20260506062024 50 39 0.0 1.0 0.00 0.28 0.07 99 1016.2
20260506061903 50 39 0.0 1.0 0.00 0.28 0.07 99 1016.2
20260506061824 50 40 0.0 1.0 0.00 0.28 0.07 99 1016.3
20260506061703 50 40 0.0 1.0 0.00 0.29 0.07 99 1016.1
20260506061603 50 40 0.0 1.0 0.00 0.29 0.07 99 1016.2
20260506061524 50 40 0.0 1.0 0.00 0.29 0.07 99 1016.2
20260506061403 50 41 0.0 1.0 0.00 0.29 0.07 99 1016.2
20260506061303 50 41 0.0 1.0 0.00 0.29 0.07 99 1016.2
20260506061224 50 42 0.0 1.0 0.00 0.29 0.07 99 1016.3
20260506061103 50 40 0.0 1.0 0.00 0.29 0.07 99 1016.1
20260506061003 50 40 0.0 1.0 0.00 0.29 0.07 99 1016.3
20260506060903 50 40 0.0 1.0 0.00 0.29 0.07 99 1016.2
20260506060803 50 38 0.0 1.0 0.00 0.29 0.07 99 1016.3
20260506060703 50 38 0.0 1.0 0.00 0.29 0.07 99 1016.3
20260506060603 50 38 0.0 1.0 0.00 0.30 0.07 99 1016.3
20260506060503 50 38 0.0 1.0 0.00 0.30 0.07 99 1016.3
20260506060403 50 42 0.0 1.0 0.00 0.30 0.07 99 1016.3
20260506060303 50 42 0.0 1.0 0.00 0.31 0.07 99 1016.3
20260506060203 50 42 0.0 1.0 0.00 0.31 0.07 99 1016.3
20260506051403 49 40 0.0 1.0 0.00 0.38 0.07 99 1016.2
20260506051303 49 39 0.0 1.0 0.00 0.38 0.07 99 1016.1
20260506051203 49 39 0.0 1.0 0.00 0.38 0.07 99 1016.3
20260506051124 49 39 0.0 1.0 0.00 0.38 0.07 99 1016.3
20260506051003 49 39 0.0 1.0 0.00 0.38 0.07 99 1016.0
20260506050903 49 41 0.0 2.0 0.00 0.38 0.07 99 1016.2
20260506050803 49 41 0.0 2.0 0.00 0.38 0.07 99 1016.0
20260506050703 49 41 0.0 2.0 0.00 0.38 0.07 99 1015.9
20260506050603 49 42 0.0 2.0 0.00 0.38 0.07 99 1016.0
20260506050503 49 43 0.0 2.0 0.00 0.38 0.07 99 1016.2
20260506050403 49 43 0.0 2.0 0.00 0.38 0.07 99 1015.9
20260506050304 49 45 0.0 2.0 0.00 0.38 0.07 99 1016.0
20260506050203 49 45 0.0 2.0 0.00 0.38 0.07 99 1016.1
20260506050124 49 45 0.0 2.0 0.00 0.38 0.07 99 1016.1
20260506045103 49 40 0.0 1.0 0.00 0.38 0.07 99 1016.0
20260506045003 49 40 0.0 2.0 0.00 0.38 0.07 99 1016.1
20260506044903 49 40 0.0 2.0 0.00 0.38 0.07 99 1015.9
20260506044803 49 40 0.0 2.0 0.00 0.38 0.07 99 1016.1
20260506044703 49 40 0.0 2.0 0.00 0.38 0.07 99 1016.1
20260506044603 49 40 0.0 2.0 0.00 0.38 0.07 99 1016.1
20260506044503 49 40 0.0 2.0 0.00 0.38 0.07 99 1016.1
20260506044403 49 42 0.0 2.0 0.00 0.38 0.07 99 1016.2
20260506044324 49 44 1.0 2.0 0.00 0.38 0.07 99 1016.0
20260506044203 49 45 1.0 2.0 0.00 0.38 0.07 99 1016.1
20260506044103 49 45 1.0 2.0 0.00 0.38 0.07 99 1016.1
20260506044003 49 46 1.0 2.0 0.00 0.38 0.07 99 1016.1
20260506043903 49 46 1.0 2.0 0.00 0.38 0.07 99 1016.0
20260506043803 49 45 1.0 2.0 0.00 0.38 0.07 99 1016.1
20260506043703 49 45 1.0 3.0 0.00 0.38 0.07 99 1016.0
20260506043603 49 45 1.0 3.0 0.00 0.38 0.07 99 1016.0
20260506043503 49 45 1.0 3.0 0.00 0.38 0.07 99 1016.0
20260506043403 49 46 1.0 3.0 0.00 0.38 0.07 99 1016.0
20260506043303 49 46 1.0 3.0 0.00 0.38 0.07 99 1016.1
20260506043203 49 45 1.0 3.0 0.00 0.38 0.07 99 1016.2
20260506043103 49 45 1.0 3.0 0.00 0.38 0.07 99 1016.2
20260506043003 49 45 1.0 3.0 0.00 0.38 0.07 99 1016.1
20260506042903 49 45 1.0 3.0 0.00 0.38 0.07 99 1016.0
20260506042803 49 45 1.0 3.0 0.00 0.38 0.07 99 1016.1
20260506042724 49 45 1.0 3.0 0.00 0.38 0.07 99 1016.2
20260506042624 49 46 1.0 2.0 0.00 0.38 0.07 99 1015.9
20260506042503 49 46 1.0 2.0 0.00 0.38 0.07 99 1016.2
20260506042403 49 46 0.0 2.0 0.00 0.38 0.07 99 1016.1
20260506042305 49 46 0.0 2.0 0.00 0.38 0.07 99 1016.1
20260506042203 49 41 0.0 2.0 0.00 0.38 0.07 99 1016.2
20260506042103 49 40 0.0 2.0 0.00 0.38 0.07 99 1016.2
20260506042003 49 39 0.0 1.0 0.00 0.38 0.07 99 1016.2
20260506041903 49 39 0.0 1.0 0.00 0.38 0.07 99 1016.2
20260506041803 49 38 0.0 1.0 0.00 0.38 0.07 99 1016.1
20260506041724 49 38 0.0 1.0 0.00 0.38 0.07 99 1016.2
20260506041624 49 38 0.0 1.0 0.00 0.38 0.07 99 1016.1
20260506041503 49 38 0.0 1.0 0.00 0.38 0.07 99 1016.2
20260506041403 49 38 0.0 1.0 0.00 0.38 0.07 99 1016.2
20260506041324 49 38 0.0 1.0 0.00 0.38 0.07 99 1016.2
20260506041203 49 38 0.0 1.0 0.00 0.38 0.07 99 1016.2
20260506041103 49 39 0.0 1.0 0.00 0.38 0.07 99 1016.3
20260506041024 49 40 0.0 1.0 0.00 0.38 0.07 99 1016.4
20260506040903 49 37 0.0 1.0 0.00 0.38 0.07 99 1016.3
20260506040803 49 0 0.0 0.0 0.00 0.38 0.07 99 1016.1
20260506040703 49 0 0.0 0.0 0.00 0.38 0.07 99 1016.3
20260506040624 49 0 0.0 0.0 0.00 0.38 0.07 99 1016.3
20260506040503 49 0 0.0 0.0 0.00 0.38 0.07 99 1016.3
20260506040403 49 0 0.0 0.0 0.00 0.38 0.07 99 1016.3
20260506040303 49 0 0.0 0.0 0.00 0.38 0.07 99 1016.3
20260506040203 49 0 0.0 0.0 0.00 0.38 0.07 99 1016.3
20260506040003 49 0 0.0 0.0 0.00 0.38 0.07 99 1016.1
20260506035903 49 0 0.0 0.0 0.00 0.38 0.07 99 1016.1
20260506035803 49 0 0.0 0.0 0.00 0.38 0.07 99 1016.2
20260506035703 49 37 0.0 1.0 0.00 0.38 0.07 99 1016.3
20260506035603 49 37 0.0 1.0 0.00 0.38 0.07 99 1016.4
20260506035503 49 37 0.0 1.0 0.00 0.38 0.07 99 1016.2
20260506035403 49 37 0.0 1.0 0.00 0.38 0.07 99 1016.1
20260506035305 49 37 0.0 1.0 0.00 0.38 0.07 99 1016.3
20260506035203 49 37 0.0 1.0 0.00 0.38 0.07 99 1016.5
20260506035103 49 37 0.0 1.0 0.00 0.38 0.07 99 1016.4
20260506035003 49 37 0.0 1.0 0.00 0.38 0.07 99 1016.1
20260506034903 49 37 0.0 1.0 0.00 0.38 0.07 99 1016.4
20260506034824 49 37 0.0 1.0 0.00 0.38 0.07 99 1016.4
20260506034703 49 37 0.0 1.0 0.00 0.38 0.07 99 1016.4
20260506034624 49 38 0.0 1.0 0.00 0.38 0.07 99 1016.4
20260506034524 49 38 0.0 1.0 0.00 0.38 0.07 99 1016.3
20260506034403 49 0 0.0 0.0 0.00 0.38 0.07 99 1016.4
20260506034303 49 0 0.0 0.0 0.00 0.38 0.07 99 1016.4
20260506034203 49 0 0.0 0.0 0.00 0.38 0.07 99 1016.2
20260506034103 49 0 0.0 0.0 0.00 0.38 0.07 99 1016.3
20260506034003 49 0 0.0 0.0 0.00 0.38 0.07 99 1016.3
20260506033924 49 0 0.0 0.0 0.00 0.38 0.07 99 1016.3
20260506033803 49 0 0.0 0.0 0.00 0.38 0.07 99 1016.2
20260506033703 49 0 0.0 0.0 0.00 0.38 0.07 99 1016.4
20260506033603 49 0 0.0 0.0 0.00 0.38 0.07 99 1016.6
20260506033503 49 38 0.0 1.0 0.00 0.38 0.07 99 1016.3
20260506033424 49 38 0.0 1.0 0.00 0.38 0.07 99 1016.3
20260506033303 49 38 0.0 1.0 0.00 0.38 0.07 99 1016.4
20260506033203 49 38 0.0 1.0 0.00 0.38 0.07 99 1016.3
20260506033103 49 38 0.0 1.0 0.00 0.38 0.07 99 1016.3
20260506033003 49 38 0.0 1.0 0.00 0.38 0.07 99 1016.2
20260506032903 49 38 0.0 1.0 0.00 0.38 0.07 99 1016.7
20260506032803 49 38 0.0 1.0 0.01 0.38 0.07 99 1016.3
20260506032703 49 38 0.0 1.0 0.01 0.38 0.07 99 1016.4
20260506032603 49 38 0.0 1.0 0.01 0.38 0.07 99 1016.3
20260506032524 49 38 0.0 1.0 0.01 0.38 0.07 99 1016.4
20260506032403 49 0 0.0 0.0 0.01 0.38 0.07 99 1016.4
20260506032305 49 0 0.0 0.0 0.01 0.38 0.07 99 1016.5
20260506032203 49 0 0.0 0.0 0.01 0.38 0.07 99 1016.5
20260506032103 49 0 0.0 0.0 0.01 0.38 0.07 99 1016.6
20260506032003 49 0 0.0 0.0 0.02 0.38 0.07 99 1016.6
20260506031924 49 0 0.0 0.0 0.02 0.38 0.07 99 1016.6
20260506031803 49 0 0.0 0.0 0.02 0.38 0.07 99 1016.5
20260506031703 49 0 0.0 0.0 0.02 0.38 0.07 99 1016.5
20260506031603 49 0 0.0 0.0 0.02 0.38 0.07 99 1016.4
20260506031503 49 0 0.0 0.0 0.02 0.38 0.07 99 1016.4
20260506031403 49 0 0.0 0.0 0.03 0.38 0.07 99 1016.4
20260506031303 49 37 0.0 1.0 0.03 0.38 0.07 99 1016.5
20260506031203 49 37 0.0 1.0 0.03 0.38 0.07 99 1016.3
20260506031103 49 38 0.0 1.0 0.03 0.38 0.07 99 1016.6
20260506031003 49 38 0.0 1.0 0.03 0.38 0.07 99 1016.5
20260506030903 49 38 0.0 1.0 0.03 0.38 0.07 99 1016.5
20260506030803 49 38 0.0 1.0 0.03 0.38 0.07 99 1016.4
20260506030703 49 38 0.0 1.0 0.03 0.38 0.07 99 1016.4
20260506030603 49 38 0.0 1.0 0.03 0.38 0.07 99 1016.6
20260506030503 49 38 0.0 1.0 0.03 0.38 0.07 99 1016.5
20260506030404 49 38 0.0 1.0 0.04 0.38 0.07 99 1016.6
20260506030303 49 38 0.0 1.0 0.04 0.38 0.07 99 1016.5
20260506030203 49 38 1.0 1.0 0.04 0.38 0.07 99 1016.5
20260506030103 49 37 1.0 2.0 0.04 0.38 0.07 99 1016.6
20260506030003 49 48 1.0 2.0 0.04 0.38 0.07 99 1016.5
20260506025903 49 48 1.0 2.0 0.04 0.38 0.07 99 1016.5
20260506025803 49 46 1.0 2.0 0.04 0.38 0.07 99 1016.6
20260506025703 49 46 1.0 2.0 0.04 0.38 0.07 99 1016.7
20260506025603 49 47 1.0 2.0 0.05 0.38 0.07 99 1016.6
20260506025503 49 48 1.0 2.0 0.05 0.38 0.07 99 1016.6
20260506025403 49 48 1.0 2.0 0.06 0.38 0.07 99 1016.6
20260506025324 49 47 1.0 2.0 0.06 0.38 0.07 99 1016.5
20260506025203 49 46 1.0 2.0 0.06 0.38 0.07 99 1016.6
20260506025103 49 48 1.0 2.0 0.06 0.38 0.07 99 1016.6
20260506025003 49 52 0.0 2.0 0.07 0.38 0.07 99 1016.6
20260506024903 49 28 0.0 1.0 0.07 0.38 0.07 99 1016.7
20260506024803 49 29 0.0 1.0 0.07 0.38 0.07 99 1016.5
20260506024703 49 29 0.0 1.0 0.07 0.38 0.07 99 1016.6
20260506024624 49 29 0.0 1.0 0.07 0.38 0.07 99 1016.6
20260506024503 49 29 0.0 1.0 0.07 0.38 0.07 99 1016.6
20260506024403 49 29 0.0 1.0 0.07 0.38 0.07 99 1016.6
20260506024303 49 29 0.0 1.0 0.07 0.38 0.07 99 1016.6
20260506024203 49 0 0.0 0.0 0.07 0.38 0.07 99 1016.5
20260506024103 49 30 0.0 1.0 0.07 0.38 0.07 99 1016.4
20260506024003 49 30 0.0 1.0 0.07 0.38 0.07 99 1016.6
20260506023903 49 30 0.0 1.0 0.07 0.38 0.07 99 1016.6
20260506023803 49 29 0.0 1.0 0.07 0.38 0.07 99 1016.4
20260506023704 49 29 0.0 1.0 0.07 0.38 0.07 99 1016.6
20260506023603 50 29 0.0 1.0 0.07 0.38 0.07 99 1016.7
20260506023525 50 29 0.0 1.0 0.07 0.38 0.07 99 1016.7
20260506023403 50 29 0.0 1.0 0.07 0.38 0.07 99 1016.8
20260506023303 50 29 0.0 1.0 0.07 0.38 0.07 99 1016.7
20260506023203 50 29 0.0 1.0 0.07 0.38 0.07 99 1016.6
20260506023103 50 29 0.0 1.0 0.07 0.38 0.07 99 1016.7
20260506023003 50 29 0.0 1.0 0.07 0.38 0.07 99 1016.6
20260506022903 50 29 0.0 1.0 0.07 0.38 0.07 99 1016.7
20260506022803 50 29 0.0 1.0 0.06 0.37 0.06 99 1016.6
20260506022704 50 0 0.0 0.0 0.06 0.37 0.06 99 1016.6
20260506022603 50 0 0.0 0.0 0.06 0.37 0.06 99 1016.4
20260506022503 50 0 0.0 0.0 0.06 0.37 0.06 99 1016.4
20260506022424 50 0 0.0 0.0 0.06 0.37 0.06 99 1016.4
20260506022324 50 0 0.0 0.0 0.06 0.37 0.06 99 1016.7
20260506022203 50 0 0.0 0.0 0.06 0.37 0.06 99 1016.6
20260506022124 50 0 0.0 0.0 0.06 0.37 0.06 99 1016.6
20260506022003 50 0 0.0 0.0 0.05 0.36 0.06 99 1016.5
20260506021925 50 0 0.0 0.0 0.05 0.36 0.05 99 1016.6
20260506021803 50 0 0.0 0.0 0.05 0.36 0.05 99 1016.5
20260506021703 50 0 0.0 0.0 0.05 0.36 0.05 99 1016.6
20260506021603 50 0 0.0 0.0 0.05 0.36 0.05 99 1016.6
20260506021503 50 0 0.0 0.0 0.05 0.36 0.05 99 1016.8
20260506021303 50 0 0.0 0.0 0.04 0.35 0.04 99 1016.8
20260506021203 50 0 0.0 0.0 0.04 0.35 0.04 99 1016.7
20260506021103 50 0 0.0 0.0 0.04 0.35 0.04 99 1016.7
20260506021003 50 0 0.0 0.0 0.04 0.35 0.04 99 1016.8
20260506020924 50 0 0.0 0.0 0.04 0.35 0.04 99 1016.8
20260506020803 50 0 0.0 0.0 0.04 0.35 0.04 99 1016.8
20260506020703 50 0 0.0 0.0 0.04 0.35 0.04 99 1016.8
20260506020603 50 0 0.0 0.0 0.04 0.35 0.04 99 1016.9
20260506020503 50 0 0.0 0.0 0.04 0.35 0.04 99 1016.8
20260506020403 50 0 0.0 0.0 0.03 0.34 0.04 99 1016.9
20260506020303 50 0 0.0 0.0 0.03 0.34 0.03 99 1016.9
20260506020203 50 0 0.0 0.0 0.03 0.34 0.03 99 1016.7
20260506020103 49 0 0.0 0.0 0.03 0.34 0.03 99 1016.8
20260506020004 49 0 0.0 0.0 0.03 0.34 0.03 99 1016.7
20260506015903 49 0 0.0 0.0 0.03 0.34 0.03 99 1016.8
20260506015803 49 0 0.0 0.0 0.03 0.34 0.03 99 1016.9
20260506015703 49 0 0.0 0.0 0.03 0.34 0.03 99 1016.9
20260506015603 49 0 0.0 0.0 0.02 0.33 0.02 99 1016.8
20260506015503 49 0 0.0 0.0 0.02 0.33 0.02 99 1017.0
20260506015403 49 0 0.0 0.0 0.01 0.32 0.01 99 1016.9
20260506015324 49 0 0.0 0.0 0.01 0.32 0.01 99 1016.9
20260506015203 49 0 0.0 0.0 0.01 0.32 0.01 99 1017.1
20260506015103 49 0 0.0 0.0 0.01 0.32 0.01 99 1017.1
20260506015003 49 0 0.0 0.0 0.00 0.31 0.00 99 1016.9
20260506014903 49 0 0.0 0.0 0.00 0.31 0.00 99 1016.8
20260506014803 49 0 0.0 0.0 0.00 0.31 0.00 99 1017.0
20260506014703 49 0 0.0 0.0 0.00 0.31 0.00 99 1016.9
20260506014603 49 0 0.0 0.0 0.00 0.31 0.00 99 1016.9
20260506014525 49 0 0.0 0.0 0.00 0.31 0.00 99 1016.8
20260506014403 49 0 0.0 0.0 0.00 0.31 0.00 99 1016.9
20260506014303 49 0 0.0 0.0 0.00 0.31 0.00 99 1016.8
20260506014203 49 0 0.0 0.0 0.00 0.31 0.00 99 1017.0
20260506014103 49 0 0.0 0.0 0.00 0.31 0.00 99 1016.8
20260506014003 49 0 0.0 0.0 0.00 0.31 0.00 99 1016.8
20260506013924 49 0 0.0 0.0 0.00 0.31 0.00 99 1016.9
20260506013824 49 0 0.0 0.0 0.00 0.31 0.00 99 1016.9
20260506013703 49 0 0.0 0.0 0.00 0.31 0.00 99 1016.8
20260506013603 49 0 0.0 0.0 0.00 0.31 0.00 99 1016.8
20260506013524 49 0 0.0 0.0 0.00 0.31 0.00 99 1016.8
20260506013403 49 0 0.0 0.0 0.00 0.31 0.00 99 1016.8
20260506013324 49 0 0.0 0.0 0.00 0.31 0.00 99 1016.8
20260506013203 49 0 0.0 0.0 0.00 0.31 0.00 99 1016.9
20260506013103 49 0 0.0 0.0 0.00 0.31 0.00 99 1016.9
20260506013003 49 0 0.0 0.0 0.00 0.31 0.00 99 1016.8
20260506012903 49 0 0.0 0.0 0.00 0.31 0.00 99 1017.0
20260506012803 49 0 0.0 0.0 0.00 0.31 0.00 99 1016.9
20260506012703 49 0 0.0 0.0 0.00 0.31 0.00 99 1017.0
20260506012603 49 0 0.0 0.0 0.00 0.31 0.00 99 1017.1
20260506012503 49 0 0.0 0.0 0.00 0.31 0.00 99 1016.9
20260506012403 49 0 0.0 0.0 0.00 0.31 0.00 99 1017.0
20260506012307 49 0 0.0 0.0 0.00 0.31 0.00 99 1017.1
20260506012204 49 0 0.0 0.0 0.00 0.31 0.00 99 1017.1
20260506012103 49 0 0.0 0.0 0.00 0.31 0.00 99 1017.2
20260506012003 49 0 0.0 0.0 0.00 0.31 0.00 99 1017.1
20260506011903 49 0 0.0 0.0 0.00 0.31 0.00 99 1017.0
20260506011803 49 0 0.0 0.0 0.00 0.31 0.00 99 1017.1
20260506011703 49 0 0.0 0.0 0.00 0.31 0.00 99 1017.2
20260506011624 49 0 0.0 0.0 0.00 0.31 0.00 99 1017.2
20260506011503 49 0 0.0 0.0 0.00 0.31 0.00 99 1017.1
20260506011403 49 0 0.0 0.0 0.00 0.31 0.00 99 1017.0
20260506011303 49 0 0.0 0.0 0.00 0.31 0.00 99 1017.2
20260506011203 49 0 0.0 0.0 0.00 0.31 0.00 99 1017.2
20260506011103 49 0 0.0 0.0 0.00 0.31 0.00 99 1017.1
20260506011025 49 0 0.0 0.0 0.00 0.31 0.00 99 1017.1
20260506010903 49 0 0.0 0.0 0.00 0.31 0.00 99 1017.2
20260506010803 49 0 0.0 0.0 0.00 0.31 0.00 99 1017.2
20260506010703 49 0 0.0 0.0 0.00 0.31 0.00 99 1017.3
20260506010603 49 0 0.0 0.0 0.00 0.31 0.00 98 1017.1
20260506010503 49 0 0.0 0.0 0.00 0.31 0.00 98 1017.0
20260506010403 49 0 0.0 0.0 0.00 0.31 0.00 98 1017.1
20260506010303 49 0 0.0 0.0 0.00 0.31 0.00 98 1017.1
20260506010203 49 0 0.0 0.0 0.00 0.31 0.00 98 1017.2
20260506010103 49 0 0.0 0.0 0.00 0.31 0.00 98 1017.1
20260506010003 49 0 0.0 0.0 0.00 0.31 0.00 98 1017.1